Latitude: N 50° 09' 49" Longitude: W 05° 11' 53" Elevation: 168m ASL

There are 15 visitors online

Adverts

<- Previous Day | Today | Next Day ->

All Data for 18 June 2018

Time
A - D
Temp
A - D
Dew Point
A - D
Humidity
A - D
Pressure
A - D
Wind
A - D
Wind Dir Gust
A - D
Rain Rate
A - D
Rain Total
00:00 13.6 13.5 99 1019.4 11.4 SW 11.4 0.0 0.0
00:01 13.6 13.5 99 1019.4 11.4 SW 11.4 0.0 0.0
00:02 13.6 13.5 99 1019.4 11.4 SW 11.4 0.0 0.0
00:03 13.6 13.5 99 1019.4 11.4 SW 11.4 0.0 0.0
00:04 13.6 13.5 99 1019.5 11.4 SW 11.4 0.0 0.0
00:05 13.6 13.5 99 1019.5 11.4 SW 11.4 0.0 0.0
00:06 13.6 13.5 99 1019.4 10.7 SW 11.4 0.0 0.0
00:07 13.6 13.5 99 1019.3 9.2 S 11.4 0.0 0.0
00:08 13.6 13.5 99 1019.4 8.3 SW 11.4 0.0 0.0
00:09 13.6 13.5 99 1019.4 9.2 S 11.4 0.0 0.0
00:10 13.6 13.5 99 1019.4 7.6 SW 11.4 0.0 0.0
00:12 13.6 13.5 99 1019.4 10.7 SW 11.4 0.0 0.0
00:13 13.6 13.5 99 1019.4 9.8 SW 11.4 0.0 0.0
00:14 13.6 13.5 99 1019.5 13.6 SW 13.6 0.0 0.0
00:15 13.6 13.5 99 1019.5 13.0 WSW 13.6 0.0 0.0
00:16 13.6 13.5 99 1019.3 9.8 W 13.6 0.0 0.0
00:17 13.6 13.5 99 1019.5 9.2 S 13.6 0.0 0.0
00:18 13.6 13.5 99 1019.3 8.3 S 13.6 0.0 0.0
00:19 13.6 13.5 99 1019.3 12.1 SW 13.6 0.0 0.0
00:20 13.6 13.5 99 1019.4 9.8 SW 13.6 0.0 0.0
00:21 13.6 13.5 99 1019.3 9.8 SW 13.6 0.0 0.0
00:22 13.6 13.5 99 1019.2 12.1 SW 13.6 0.0 0.0
00:23 13.6 13.5 99 1019.4 9.8 S 13.6 0.0 0.0
00:24 13.6 13.5 99 1019.3 7.6 WSW 13.6 0.0 0.0
00:25 13.6 13.5 99 1019.4 10.7 SW 13.0 0.0 0.0
00:26 13.5 13.4 99 1019.4 12.1 SW 12.1 0.0 0.0
00:27 13.5 13.4 99 1019.6 11.4 SW 12.1 0.0 0.0
00:28 13.5 13.4 99 1019.4 14.5 S 14.5 0.0 0.0
00:29 13.5 13.4 99 1019.5 8.3 SW 14.5 0.0 0.0
00:30 13.5 13.4 99 1019.5 9.2 W 14.5 0.0 0.0
00:31 13.5 13.4 99 1019.6 12.1 NE 14.5 0.0 0.0
00:33 13.5 13.4 99 1019.6 11.4 W 14.5 0.0 0.0
00:34 13.5 13.4 99 1019.6 13.0 SW 14.5 0.0 0.0
00:35 13.5 13.4 99 1019.7 20.6 SW 20.6 0.0 0.0
00:36 13.5 13.4 99 1019.7 13.6 SW 20.6 0.0 0.0
00:37 13.4 13.3 99 1019.7 9.8 SW 20.6 0.0 0.0
00:38 13.4 13.3 99 1019.7 9.8 SW 20.6 0.0 0.0
00:39 13.4 13.3 99 1019.8 8.3 SW 20.6 0.0 0.0
00:40 13.4 13.3 99 1019.7 9.8 SW 20.6 0.0 0.0
00:41 13.4 13.3 99 1019.7 13.6 SW 20.6 0.0 0.0
00:42 13.4 13.3 99 1019.8 13.6 SW 20.6 0.0 0.0
00:43 13.4 13.3 99 1019.7 12.1 SW 20.6 0.0 0.0
00:44 13.4 13.3 99 1019.8 7.6 SW 20.6 0.0 0.0
00:45 13.4 13.3 99 1019.8 11.4 SW 20.6 0.0 0.0
00:46 13.4 13.3 99 1019.6 15.2 SW 15.2 0.0 0.0
00:47 13.4 13.3 99 1019.7 9.2 SW 15.2 0.0 0.0
00:48 13.3 13.2 99 1019.7 9.2 S 15.2 0.0 0.0
00:49 13.3 13.2 99 1019.8 9.8 W 15.2 0.0 0.0
00:50 13.3 13.2 99 1019.8 7.6 SW 15.2 0.0 0.0
00:51 13.3 13.2 99 1019.7 9.8 SW 15.2 0.0 0.0
00:53 13.3 13.2 99 1019.8 9.2 WSW 15.2 0.0 0.0
00:54 13.3 13.2 99 1019.8 9.2 WSW 15.2 0.0 0.0
00:55 13.3 13.2 99 1019.8 13.0 SW 15.2 0.0 0.0
00:56 13.3 13.2 99 1019.7 9.8 S 13.0 0.0 0.0
00:57 13.3 13.2 99 1019.7 12.1 W 13.0 0.0 0.0
00:58 13.2 13.1 99 1019.9 9.8 SW 13.0 0.0 0.0
00:59 13.3 13.2 99 1019.8 9.8 W 13.0 0.0 0.0
01:00 13.3 13.2 99 1019.7 9.2 SW 13.0 0.0 0.0
01:01 13.3 13.2 99 1019.6 9.2 SW 13.0 0.0 0.0
01:02 13.2 13.1 99 1019.7 13.0 WNW 13.0 0.0 0.0
01:03 13.2 13.1 99 1019.6 8.3 S 13.0 0.0 0.0
01:04 13.2 13.1 99 1019.7 9.2 WSW 13.0 0.0 0.0
01:05 13.2 13.1 99 1019.6 9.8 WSW 13.0 0.0 0.0
01:06 13.2 13.1 99 1019.7 9.2 WNW 13.0 0.0 0.0
01:07 13.2 13.1 99 1019.7 7.6 SW 13.0 0.0 0.0
01:08 13.2 13.1 99 1019.9 9.2 W 13.0 0.0 0.0
01:09 13.2 13.1 99 1019.7 7.6 SW 13.0 0.0 0.0
01:10 13.2 13.1 99 1019.9 9.2 SSW 13.0 0.0 0.0
01:11 13.2 13.1 99 1019.7 6.0 W 13.0 0.0 0.0
01:12 13.2 13.1 99 1019.8 6.0 SW 12.1 0.0 0.0
01:13 13.2 13.1 99 1019.8 7.6 SW 9.8 0.0 0.0
01:14 13.2 13.1 99 1019.8 7.6 S 9.8 0.0 0.0
01:15 13.2 13.1 99 1019.8 4.5 NW 9.8 0.0 0.0
01:16 13.2 13.1 99 1019.9 5.4 W 9.8 0.0 0.0
01:17 13.2 13.1 99 1019.9 6.9 WSW 9.2 0.0 0.0
01:18 13.2 13.1 99 1019.8 9.2 SW 9.2 0.0 0.0
01:19 13.2 13.1 99 1019.8 8.3 SW 9.2 0.0 0.0
01:20 13.2 13.1 99 1019.6 10.7 SSW 10.7 0.0 0.0
01:21 13.2 13.1 99 1019.8 10.7 SW 11.4 0.0 0.0
01:22 13.2 13.1 99 1019.8 9.2 SW 11.4 0.0 0.0
01:23 13.2 13.1 99 1019.9 15.9 SW 15.9 0.0 0.0
01:24 13.2 13.1 99 1019.8 9.8 SW 15.9 0.0 0.0
01:25 13.2 13.1 99 1019.6 12.1 SW 15.9 0.0 0.0
01:26 13.2 13.1 99 1019.7 9.8 WSW 15.9 0.0 0.0
01:27 13.2 13.1 99 1019.8 8.3 S 15.9 0.0 0.0
01:28 13.2 13.1 99 1019.8 8.3 W 15.9 0.0 0.0
01:29 13.2 13.1 99 1019.8 10.7 SW 15.9 0.0 0.0
01:31 13.1 13.0 99 1019.8 6.9 W 15.9 0.0 0.0
01:32 13.1 13.0 99 1019.7 11.4 SW 15.9 0.0 0.0
01:33 13.1 13.0 99 1019.8 9.8 SW 15.9 0.0 0.0
01:34 13.1 13.0 99 1019.9 9.2 W 12.1 0.0 0.0
01:35 13.1 13.0 99 1019.8 7.6 W 12.1 0.0 0.0
01:36 13.1 13.0 99 1019.8 7.6 SW 11.4 0.0 0.0
01:37 13.1 13.0 99 1019.9 9.2 W 11.4 0.0 0.0
01:38 13.1 13.0 99 1019.8 9.2 SW 11.4 0.0 0.0
01:39 13.1 13.0 99 1019.8 10.7 SW 11.4 0.0 0.0
01:40 13.1 13.0 99 1019.9 9.2 SW 11.4 0.0 0.0
01:41 13.1 13.0 99 1019.8 6.0 SW 11.4 0.0 0.0
01:42 13.1 13.0 99 1019.7 9.8 W 11.4 0.0 0.0
01:43 13.1 13.0 99 1019.8 10.7 SW 10.7 0.0 0.0
01:44 13.1 13.0 99 1019.7 9.2 W 12.1 0.0 0.0
01:45 13.1 13.0 99 1019.8 9.2 SW 12.1 0.0 0.0
01:46 13.0 12.9 99 1019.9 11.4 SW 12.1 0.0 0.0
01:47 13.1 13.0 99 1019.8 6.9 S 12.1 0.0 0.0
01:48 13.1 13.0 99 1019.8 6.9 S 12.1 0.0 0.0
01:49 13.0 12.9 99 1019.8 9.2 SW 12.1 0.0 0.0
01:50 13.0 12.9 99 1019.8 10.7 NW 12.1 0.0 0.0
01:51 13.0 12.9 99 1019.8 8.3 SW 12.1 0.0 0.0
01:52 13.1 13.0 99 1019.8 8.3 NW 12.1 0.0 0.0
01:53 13.0 12.9 99 1019.9 7.6 W 12.1 0.0 0.0
01:54 13.0 12.9 99 1019.9 6.0 NW 11.4 0.0 0.0
01:55 13.0 12.9 99 1019.9 7.6 W 11.4 0.0 0.0
01:56 13.0 12.9 99 1020.0 8.3 SW 10.7 0.0 0.0
01:58 13.0 12.9 99 1020.0 11.4 SW 11.4 0.0 0.0
01:59 13.1 13.0 99 1020.1 9.2 WSW 11.4 0.0 0.0
02:00 13.0 12.9 99 1020.0 9.8 SW 11.4 0.0 0.0
02:01 13.1 13.0 99 1019.9 9.2 NW 11.4 0.0 0.0
02:02 13.1 13.0 99 1019.9 9.2 NW 11.4 0.0 0.0
02:03 13.1 13.0 99 1019.9 8.3 SW 11.4 0.0 0.0
02:04 13.1 13.0 99 1019.9 6.9 S 11.4 0.0 0.0
02:05 13.1 13.0 99 1019.9 7.6 SW 11.4 0.0 0.0
02:06 13.1 13.0 99 1020.0 12.1 SW 12.1 0.0 0.0
02:07 13.1 13.0 99 1019.9 10.7 WNW 12.1 0.0 0.0
02:08 13.1 13.0 99 1019.9 10.7 WNW 12.1 0.0 0.0
02:09 13.1 13.0 99 1019.8 8.3 W 12.1 0.0 0.0
02:10 13.1 13.0 99 1020.0 8.3 SW 12.1 0.0 0.0
02:11 13.1 13.0 99 1020.0 9.2 SW 12.1 0.0 0.0
02:12 13.1 13.0 99 1020.1 6.9 SW 12.1 0.0 0.0
02:13 13.1 13.0 99 1020.0 11.4 W 12.1 0.0 0.0
02:14 13.1 13.0 99 1020.0 7.6 SW 12.1 0.0 0.0
02:15 13.1 13.0 99 1019.9 8.3 SE 12.1 0.0 0.0
02:17 13.1 13.0 99 1020.0 10.7 SW 11.4 0.0 0.0
02:18 13.1 13.0 99 1019.9 9.2 SW 11.4 0.0 0.0
02:19 13.1 13.0 99 1019.9 8.3 W 11.4 0.0 0.0
02:20 13.1 13.0 99 1020.0 6.9 SW 11.4 0.0 0.0
02:21 13.1 13.0 99 1020.0 9.8 SW 11.4 0.0 0.0
02:22 13.1 13.0 99 1020.0 9.8 SW 11.4 0.0 0.0
02:23 13.1 13.0 99 1019.9 8.3 WSW 11.4 0.0 0.0
02:24 13.1 13.0 99 1020.0 9.2 W 10.7 0.0 0.0
02:25 13.1 13.0 99 1020.0 7.6 SW 10.7 0.0 0.0
02:26 13.1 13.0 99 1020.0 6.9 SW 10.7 0.0 0.0
02:27 13.2 13.1 99 1020.0 7.6 SW 10.7 0.0 0.0
02:28 13.2 13.1 99 1020.0 7.6 SW 10.7 0.0 0.0
02:29 13.1 13.0 99 1019.9 6.9 SW 9.8 0.0 0.0
02:30 13.2 13.1 99 1019.8 8.3 WSW 9.8 0.0 0.0
02:31 13.2 13.1 99 1019.8 8.3 S 9.8 0.0 0.0
02:32 13.2 13.1 99 1019.8 8.3 SW 9.8 0.0 0.0
02:33 13.2 13.1 99 1019.8 11.4 SW 11.4 0.0 0.1
02:34 13.2 13.1 99 1019.8 9.8 S 11.4 0.8 0.1
02:36 13.2 13.1 99 1019.8 10.7 SW 11.4 0.8 0.1
02:37 13.2 13.1 99 1019.7 8.3 WNW 12.1 0.8 0.1
02:38 13.2 13.1 99 1019.8 6.9 S 12.1 0.8 0.1
02:39 13.2 13.1 99 1019.8 6.0 SW 12.1 0.0 0.1
02:40 13.2 13.1 99 1019.8 9.8 SW 12.1 0.0 0.1
02:41 13.2 13.1 99 1019.7 9.8 WSW 12.1 0.0 0.1
02:42 13.2 13.1 99 1019.7 9.2 SW 12.1 0.0 0.1
02:43 13.2 13.1 99 1019.8 11.4 SW 12.1 0.0 0.1
02:44 13.2 13.1 99 1020.0 9.8 SW 12.1 0.0 0.1
02:45 13.2 13.1 99 1019.8 6.9 SW 12.1 0.0 0.1
02:46 13.2 13.1 99 1019.8 6.9 SW 12.1 0.0 0.1
02:47 13.2 13.1 99 1019.8 5.4 SW 12.1 0.0 0.1
02:48 13.2 13.1 99 1019.8 5.4 SW 11.4 0.0 0.1
02:49 13.2 13.1 99 1020.0 4.5 W 11.4 0.0 0.1
02:50 13.2 13.1 99 1020.0 4.5 S 11.4 0.0 0.1
02:51 13.2 13.1 99 1019.9 3.8 SW 11.4 0.0 0.1
02:52 13.2 13.1 99 1019.9 7.6 S 11.4 0.0 0.1
02:53 13.2 13.1 99 1020.0 6.0 SW 9.8 0.0 0.1
02:55 13.2 13.1 99 1020.0 6.0 SW 7.6 0.0 0.1
02:56 13.2 13.1 99 1020.0 7.6 W 7.6 0.0 0.1
02:57 13.2 13.1 99 1019.9 6.9 SW 7.6 0.0 0.1
02:58 13.2 13.1 99 1019.9 6.9 SW 7.6 0.0 0.1
02:59 13.2 13.1 99 1019.8 7.6 NW 7.6 0.0 0.1
03:00 13.2 13.1 99 1020.0 9.8 SW 9.8 0.0 0.1
03:01 13.2 13.1 99 1019.9 9.8 SW 9.8 0.0 0.1
03:02 13.2 13.1 99 1019.9 9.8 SW 9.8 0.0 0.1
03:03 13.2 13.1 99 1019.9 9.8 SW 9.8 0.0 0.1
03:04 13.2 13.1 99 1019.9 9.8 SW 9.8 0.0 0.1
03:05 13.3 13.2 99 1020.0 13.6 WSW 13.6 0.8 0.1
03:06 13.2 13.1 99 1020.0 9.2 SW 13.6 0.8 0.1
03:07 13.2 13.1 99 1020.1 7.6 W 13.6 0.8 0.1
03:08 13.2 13.1 99 1020.1 7.6 W 13.6 0.8 0.1
03:09 13.2 13.1 99 1020.0 13.6 NW 13.6 0.8 0.1
03:10 13.2 13.1 99 1020.0 10.7 WSW 13.6 0.0 0.1
03:11 13.3 13.2 99 1020.0 11.4 SW 13.6 0.0 0.1
03:12 13.3 13.2 99 1020.0 13.0 S 13.6 0.0 0.2
03:13 13.3 13.2 99 1019.9 13.0 S 13.6 0.8 0.2
03:14 13.3 13.2 99 1020.0 12.1 SW 13.6 0.8 0.2
03:15 13.3 13.2 99 1019.9 9.2 WSW 13.6 0.8 0.3
03:17 13.3 13.2 99 1020.0 16.8 WNW 16.8 1.5 0.3
03:18 13.2 13.1 99 1020.0 15.9 SW 16.8 0.8 0.3
03:19 13.2 13.1 99 1020.0 11.4 SW 16.8 1.5 0.3
03:20 13.2 13.1 99 1020.0 15.2 SW 16.8 1.5 0.3
03:21 13.2 13.1 99 1020.0 15.2 SW 16.8 0.8 0.3
03:22 13.2 13.1 99 1020.0 9.2 SW 16.8 0.8 0.3
03:23 13.1 13.0 99 1020.1 10.7 N 16.8 0.8 0.3
03:24 13.1 13.0 99 1019.9 11.4 NNW 16.8 0.8 0.4
03:25 13.1 13.0 99 1020.0 12.1 SW 16.8 0.8 0.4
03:26 13.1 13.0 99 1020.0 16.8 SW 16.8 0.8 0.4
03:27 13.1 13.0 99 1020.1 17.4 SW 17.4 0.8 0.4
03:28 13.0 12.9 99 1019.9 13.6 SW 17.4 0.8 0.4
03:29 13.0 12.9 99 1020.1 15.2 SW 17.4 0.0 0.4
03:30 13.0 12.9 99 1019.9 9.8 W 17.4 0.0 0.4
03:31 13.0 12.9 99 1020.0 14.5 WSW 17.4 0.0 0.4
03:32 12.9 12.8 99 1020.0 9.8 SW 17.4 0.0 0.4
03:33 13.0 12.9 99 1019.9 9.2 SW 17.4 0.0 0.4
03:34 12.9 12.8 99 1019.9 10.7 NW 17.4 0.0 0.4
03:36 12.9 12.8 99 1019.8 7.6 S 17.4 0.0 0.4
03:37 12.9 12.8 99 1020.0 12.1 SW 15.2 0.0 0.4
03:38 12.9 12.8 99 1019.9 9.2 WSW 15.2 0.0 0.4
03:39 12.9 12.8 99 1019.9 11.4 SW 14.5 0.0 0.4
03:40 12.9 12.8 99 1019.9 9.8 SW 14.5 0.0 0.4
03:41 12.9 12.8 99 1020.0 6.9 SW 14.5 0.0 0.4
03:42 12.9 12.8 99 1020.1 9.2 SW 12.1 0.0 0.4
03:43 12.9 12.8 99 1020.1 9.2 SW 12.1 0.0 0.4
03:44 12.8 12.7 99 1020.0 7.6 SW 12.1 0.0 0.4
03:45 12.8 12.7 99 1020.0 9.8 SW 12.1 0.0 0.4
03:46 12.8 12.7 99 1020.0 8.3 NW 12.1 0.0 0.4
03:47 12.9 12.8 99 1019.9 8.3 SW 12.1 0.0 0.4
03:48 12.8 12.7 99 1020.1 9.2 SW 11.4 0.0 0.4
03:49 12.8 12.7 99 1020.0 10.7 SW 11.4 0.0 0.4
03:51 12.8 12.7 99 1020.0 8.3 SW 10.7 0.0 0.4
03:52 12.8 12.7 99 1020.0 7.6 SW 10.7 0.0 0.4
03:53 12.8 12.7 99 1020.0 7.6 NW 10.7 0.0 0.4
03:54 12.8 12.7 99 1019.9 10.7 S 10.7 0.0 0.4
03:55 12.8 12.7 99 1020.1 7.6 SW 10.7 0.0 0.4
03:56 12.8 12.7 99 1020.1 8.3 WNW 10.7 0.0 0.4
03:57 12.8 12.7 99 1020.2 6.9 W 10.7 0.0 0.4
03:58 12.9 12.8 99 1020.0 9.8 SW 10.7 0.0 0.4
03:59 12.8 12.7 99 1020.1 11.4 NW 11.4 0.0 0.4
04:00 12.8 12.7 99 1019.9 13.0 N 13.0 0.0 0.4
04:01 12.8 12.7 99 1020.0 19.0 SW 19.0 0.0 0.4
04:02 12.8 12.7 99 1020.1 13.0 SW 19.0 0.0 0.4
04:03 12.8 12.7 99 1020.0 12.1 NW 19.0 0.0 0.4
04:04 12.8 12.7 99 1020.2 12.1 W 19.0 0.0 0.4
04:06 12.8 12.7 99 1020.2 9.8 W 19.0 0.0 0.4
04:07 12.8 12.7 99 1020.1 10.7 SW 19.0 0.0 0.4
04:08 12.7 12.6 99 1020.1 10.7 SW 19.0 0.0 0.4
04:09 12.7 12.6 99 1020.1 15.9 SW 19.0 0.0 0.4
04:10 12.7 12.6 99 1020.1 15.9 SW 19.0 0.0 0.4
04:11 12.7 12.6 99 1020.1 10.7 W 19.0 0.0 0.4
04:12 12.7 12.6 99 1020.2 12.1 SW 15.9 0.8 0.4
04:13 12.7 12.6 99 1020.3 8.3 WNW 15.9 0.8 0.4
04:14 12.6 12.5 99 1020.2 11.4 NW 15.9 0.8 0.4
04:15 12.6 12.5 99 1020.3 12.1 SW 15.9 0.8 0.4
04:16 12.6 12.5 99 1020.2 9.2 W 15.9 0.8 0.4
04:17 12.6 12.5 99 1020.0 11.4 W 15.9 0.0 0.4
04:18 12.6 12.5 99 1020.2 13.6 SW 15.9 0.0 0.4
04:19 12.6 12.5 99 1020.0 10.7 SW 15.9 0.0 0.4
04:20 12.5 12.4 99 1020.1 9.2 NW 13.6 0.0 0.4
04:21 12.5 12.4 99 1020.2 15.2 SW 15.2 0.0 0.4
04:22 12.5 12.4 99 1020.1 13.0 SW 15.2 0.0 0.4
04:23 12.5 12.4 99 1020.3 13.0 W 15.2 0.0 0.4
04:24 12.5 12.4 99 1020.2 12.1 SW 15.2 0.0 0.4
04:25 12.5 12.4 99 1020.2 11.4 SW 15.2 0.0 0.4
04:27 12.4 12.3 99 1020.3 8.3 SW 15.2 0.0 0.4
04:28 12.4 12.3 99 1020.2 9.8 W 15.2 0.0 0.4
04:29 12.4 12.3 99 1020.3 9.2 WSW 15.2 0.0 0.4
04:30 12.4 12.3 99 1020.3 9.2 WSW 15.2 0.0 0.4
04:31 12.4 12.3 99 1020.3 8.3 SW 15.2 0.0 0.4
04:32 12.4 12.3 99 1020.3 13.0 SW 13.0 0.0 0.4
04:33 12.4 12.3 99 1020.2 9.8 SW 13.0 0.0 0.4
04:34 12.4 12.3 99 1020.4 10.7 S 13.0 0.0 0.4
04:35 12.4 12.3 99 1020.1 9.2 SW 13.0 0.0 0.4
04:36 12.4 12.3 99 1020.2 8.3 SW 13.0 0.0 0.4
04:37 12.4 12.3 99 1020.3 8.3 NW 13.0 0.0 0.4
04:38 12.4 12.3 99 1020.2 7.6 SW 13.0 0.0 0.4
04:39 12.4 12.3 99 1020.2 9.8 WSW 13.0 0.0 0.4
04:40 12.4 12.3 99 1020.2 9.2 WSW 13.0 0.0 0.4
04:41 12.3 12.2 99 1020.3 9.2 SW 13.0 0.0 0.4
04:42 12.3 12.2 99 1020.1 9.8 WNW 11.4 0.0 0.4
04:43 12.4 12.3 99 1020.3 9.8 W 11.4 0.0 0.4
04:44 12.3 12.2 99 1020.0 6.0 W 12.1 0.0 0.4
04:45 12.3 12.2 99 1020.3 8.3 NW 12.1 0.0 0.4
04:47 12.3 12.2 99 1020.2 9.8 SW 12.1 0.0 0.4
04:48 12.3 12.2 99 1020.1 13.0 W 13.0 0.0 0.4
04:49 12.3 12.2 99 1020.1 13.6 SW 13.6 0.0 0.4
04:50 12.3 12.2 99 1020.3 9.2 W 13.6 0.0 0.4
04:51 12.3 12.2 99 1020.3 12.1 W 13.6 0.0 0.4
04:52 12.3 12.2 99 1020.2 13.0 SW 13.6 0.0 0.4
04:53 12.3 12.2 99 1020.0 13.0 SW 13.6 0.0 0.4
04:54 12.3 12.2 99 1020.4 9.8 NW 13.6 0.0 0.4
04:55 12.3 12.2 99 1020.2 10.7 SW 13.6 0.0 0.4
04:56 12.3 12.2 99 1020.3 11.4 SW 13.6 0.0 0.4
04:57 12.3 12.2 99 1020.3 10.7 W 13.6 0.0 0.4
04:58 12.3 12.2 99 1020.2 8.3 W 13.6 0.0 0.4
04:59 12.3 12.2 99 1020.1 8.3 SW 13.6 0.0 0.4
05:00 12.3 12.2 99 1020.2 8.3 SW 13.0 0.0 0.4
05:01 12.3 12.2 99 1020.3 8.3 SW 13.0 0.0 0.4
05:02 12.3 12.2 99 1020.3 9.8 SW 13.0 0.0 0.4
05:03 12.3 12.2 99 1020.3 9.2 SW 13.0 0.0 0.4
05:04 12.3 12.2 99 1020.2 9.2 SW 13.0 0.0 0.4
05:06 12.3 12.2 99 1020.3 10.7 SW 13.0 0.0 0.4
05:07 12.3 12.2 99 1020.2 9.8 SW 13.0 0.0 0.4
05:08 12.3 12.2 99 1020.3 9.8 NW 11.4 0.0 0.4
05:09 12.3 12.2 99 1020.3 9.8 SW 11.4 0.0 0.4
05:10 12.3 12.2 99 1020.1 10.7 SW 11.4 0.0 0.4
05:11 12.3 12.2 99 1020.1 8.3 W 11.4 0.0 0.4
05:13 12.3 12.2 99 1020.3 8.3 SW 11.4 0.0 0.4
05:14 12.3 12.2 99 1020.3 8.3 SW 11.4 0.0 0.4
05:15 12.3 12.2 99 1020.2 6.9 WSW 11.4 0.0 0.4
05:16 12.3 12.2 99 1020.2 8.3 SW 10.7 0.0 0.4
05:17 12.3 12.2 99 1020.3 6.0 SW 10.7 0.0 0.4
05:18 12.3 12.2 99 1020.3 7.6 SW 10.7 0.0 0.4
05:19 12.3 12.2 99 1020.3 6.0 WSW 10.7 0.0 0.4
05:20 12.3 12.2 99 1020.4 4.5 SW 10.7 0.0 0.4
05:21 12.3 12.2 99 1020.4 5.4 SW 8.3 0.0 0.4
05:22 12.3 12.2 99 1020.3 9.2 SW 9.2 0.0 0.4
05:23 12.3 12.2 99 1020.4 6.0 SW 9.2 0.0 0.4
05:24 12.3 12.2 99 1020.3 8.3 SW 9.2 0.0 0.4
05:25 12.3 12.2 99 1020.4 7.6 NW 9.2 0.0 0.4
05:26 12.3 12.2 99 1020.4 7.6 SW 9.2 0.0 0.4
05:27 12.3 12.2 99 1020.3 9.2 SW 9.2 0.0 0.4
05:28 12.3 12.2 99 1020.3 7.6 WSW 12.1 0.0 0.4
05:29 12.3 12.2 99 1020.3 7.6 S 12.1 0.0 0.4
05:31 12.3 12.2 99 1020.2 10.7 SW 12.1 0.0 0.4
05:32 12.3 12.2 99 1020.1 9.8 SW 12.1 0.0 0.4
05:33 12.3 12.2 99 1020.2 9.8 WSW 12.1 0.0 0.4
05:34 12.4 12.3 99 1020.2 11.4 SW 12.1 0.0 0.4
05:35 12.4 12.3 99 1020.3 11.4 SW 12.1 0.0 0.4
05:36 12.4 12.3 99 1020.1 10.7 SW 12.1 0.0 0.4
05:37 12.4 12.3 99 1020.3 9.2 SW 12.1 0.0 0.4
05:38 12.4 12.3 99 1020.2 8.3 SW 12.1 0.0 0.4
05:39 12.4 12.3 99 1020.1 9.8 SW 11.4 0.0 0.4
05:40 12.4 12.3 99 1020.3 12.1 SW 12.1 0.0 0.4
05:41 12.4 12.3 99 1020.2 9.2 S 12.1 0.0 0.4
05:42 12.4 12.3 99 1020.3 8.3 W 12.1 0.0 0.4
05:43 12.5 12.4 99 1020.4 9.2 SW 12.1 0.0 0.4
05:44 12.5 12.4 99 1020.4 8.3 SW 12.1 0.0 0.5
05:45 12.5 12.4 99 1020.4 8.3 NW 12.1 0.8 0.5
05:47 12.5 12.4 99 1020.5 9.2 SW 12.1 0.8 0.5
05:48 12.5 12.4 99 1020.6 6.9 SW 12.1 0.8 0.5
05:49 12.5 12.4 99 1020.6 6.9 SW 12.1 0.8 0.5
05:50 12.5 12.4 99 1020.5 9.2 W 12.1 0.0 0.5
05:51 12.5 12.4 99 1020.6 6.9 W 9.8 0.0 0.5
05:52 12.5 12.4 99 1020.7 6.9 W 9.8 0.0 0.5
05:53 12.5 12.4 99 1020.7 7.6 SW 9.8 0.0 0.5
05:54 12.5 12.4 99 1020.7 6.9 SW 9.8 0.0 0.5
05:55 12.5 12.4 99 1020.5 10.7 SW 10.7 0.0 0.5
05:56 12.5 12.4 99 1020.6 9.2 WNW 10.7 0.0 0.5
05:57 12.5 12.4 99 1020.7 8.3 SW 13.0 0.0 0.5
05:58 12.5 12.4 99 1020.6 11.4 SW 13.0 0.0 0.5
05:59 12.6 12.5 99 1020.6 10.7 W 13.0 0.0 0.5
06:00 12.5 12.4 99 1020.6 9.2 SW 13.0 0.0 0.5
06:02 12.5 12.4 99 1020.7 9.2 SW 13.0 0.0 0.5
06:03 12.5 12.4 99 1020.9 9.2 SW 13.0 0.0 0.5
06:04 12.5 12.4 99 1020.8 9.2 SW 13.0 0.0 0.5
06:05 12.5 12.4 99 1020.7 9.2 SW 13.0 0.0 0.5
06:06 12.6 12.5 99 1020.6 9.2 WSW 13.0 0.0 0.5
06:07 12.6 12.5 99 1020.8 7.6 SW 11.4 0.0 0.5
06:08 12.6 12.5 99 1020.7 8.3 SW 11.4 0.0 0.5
06:09 12.6 12.5 99 1020.7 12.1 SW 12.1 0.0 0.5
06:10 12.6 12.5 99 1020.8 10.7 SW 12.1 0.0 0.5
06:11 12.6 12.5 99 1020.8 9.2 NW 12.1 0.0 0.5
06:12 12.6 12.5 99 1020.7 11.4 WSW 12.1 0.0 0.5
06:13 12.6 12.5 99 1020.8 12.1 SW 12.1 0.0 0.5
06:14 12.6 12.5 99 1020.7 10.7 W 12.1 0.0 0.5
06:15 12.6 12.5 99 1020.8 10.7 SW 12.1 0.0 0.5
06:17 12.6 12.5 99 1020.8 10.7 WNW 12.1 0.0 0.5
06:18 12.6 12.5 99 1020.9 10.7 W 12.1 0.0 0.5
06:19 12.6 12.5 99 1020.9 7.6 WSW 12.1 0.0 0.5
06:20 12.6 12.5 99 1021.0 9.2 SW 12.1 0.0 0.5
06:21 12.6 12.5 99 1020.9 10.7 SW 12.1 0.0 0.5
06:22 12.7 12.6 99 1020.7 7.6 SW 12.1 0.0 0.5
06:23 12.7 12.6 99 1020.8 7.6 SW 12.1 0.0 0.5
06:24 12.7 12.6 99 1020.7 8.3 W 11.4 0.0 0.5
06:25 12.7 12.6 99 1020.8 8.3 NW 11.4 0.0 0.5
06:26 12.7 12.6 99 1020.8 6.0 NW 10.7 0.0 0.5
06:27 12.7 12.6 99 1020.9 6.0 W 10.7 0.0 0.5
06:28 12.7 12.6 99 1020.7 7.6 WNW 10.7 0.0 0.5
06:29 12.7 12.6 99 1020.8 6.9 W 10.7 0.0 0.5
06:31 12.7 12.6 99 1020.9 9.2 SSW 9.8 0.0 0.5
06:32 12.7 12.6 99 1021.0 9.2 NW 9.2 0.0 0.5
06:33 12.7 12.6 99 1021.0 9.2 NW 9.2 0.0 0.5
06:34 12.8 12.7 99 1021.0 8.3 SW 9.2 0.0 0.5
06:35 12.7 12.6 99 1021.1 8.3 SW 9.2 0.0 0.5
06:36 12.8 12.7 99 1021.0 8.3 NW 9.2 0.0 0.5
06:37 12.8 12.7 99 1021.1 6.9 SW 9.2 0.0 0.5
06:38 12.8 12.7 99 1021.0 7.6 SW 9.2 0.0 0.5
06:39 12.8 12.7 99 1021.2 6.0 W 9.2 0.0 0.5
06:40 12.8 12.7 99 1021.0 7.6 SW 9.2 0.0 0.5
06:41 12.8 12.7 99 1020.9 6.9 SW 9.2 0.0 0.5
06:42 12.8 12.7 99 1021.1 7.6 SW 9.2 0.0 0.5
06:43 12.8 12.7 99 1020.9 6.0 SSW 8.3 0.0 0.5
06:45 12.8 12.7 99 1021.2 10.7 SW 10.7 0.0 0.5
06:46 12.8 12.7 99 1021.1 9.2 SW 10.7 0.0 0.5
06:47 12.8 12.7 99 1021.0 9.8 N 10.7 0.0 0.5
06:48 12.9 12.8 99 1021.3 9.2 SW 10.7 0.0 0.5
06:49 12.8 12.7 99 1021.2 7.6 W 10.7 0.0 0.5
06:50 12.9 12.8 99 1021.3 6.9 W 10.7 0.0 0.5
06:51 12.9 12.8 99 1021.3 6.9 SW 10.7 0.0 0.5
06:52 12.9 12.8 99 1021.4 7.6 NW 10.7 0.0 0.5
06:53 12.9 12.8 99 1021.4 6.9 SW 10.7 0.0 0.5
06:54 12.9 12.8 99 1021.3 7.6 NW 10.7 0.0 0.5
06:55 12.9 12.8 99 1021.3 6.9 W 10.7 0.0 0.5
06:56 12.9 12.8 99 1021.3 5.4 SW 9.8 0.0 0.5
06:57 12.9 12.8 99 1021.3 7.6 WNW 9.2 0.0 0.5
06:58 12.9 12.8 99 1021.4 8.3 SW 9.2 0.0 0.5
07:00 13.0 12.9 99 1021.5 6.0 SW 9.2 0.0 0.5
07:01 13.0 12.9 99 1021.4 6.0 SW 9.2 0.0 0.5
07:02 13.0 12.9 99 1021.5 7.6 SW 9.2 0.0 0.5
07:03 13.1 13.0 99 1021.4 6.9 SW 9.2 0.0 0.5
07:04 13.0 12.9 99 1021.4 7.6 SW 8.3 0.0 0.5
07:05 13.1 13.0 99 1021.3 5.4 SW 8.3 0.0 0.5
07:06 13.1 13.0 99 1021.3 6.9 NW 8.3 0.0 0.5
07:07 13.1 13.0 99 1021.2 6.9 SSW 8.3 0.0 0.5
07:08 13.1 13.0 99 1021.3 10.7 S 10.7 0.0 0.5
07:09 13.1 13.0 99 1021.3 9.2 W 10.7 0.0 0.5
07:10 13.1 13.0 99 1021.5 8.3 SW 10.7 0.0 0.5
07:11 13.1 13.0 99 1021.6 9.2 WNW 10.7 0.0 0.5
07:12 13.3 13.2 99 1021.4 6.9 WNW 10.7 0.0 0.5
07:13 13.1 13.0 99 1021.5 9.2 SW 10.7 0.0 0.5
07:14 13.1 13.0 99 1021.4 6.9 W 10.7 0.0 0.5
07:15 13.2 13.1 99 1021.5 7.6 SW 10.7 0.0 0.5
07:16 13.2 13.1 99 1021.5 10.7 SW 10.7 0.0 0.5
07:17 13.2 13.1 99 1021.5 8.3 SW 10.7 0.0 0.5
07:18 13.2 13.1 99 1021.5 9.8 SW 10.7 0.0 0.5
07:20 13.2 13.1 99 1021.5 8.3 SW 10.7 0.0 0.5
07:21 13.2 13.1 99 1021.5 7.6 SSW 10.7 0.0 0.5
07:22 13.2 13.1 99 1021.7 8.3 W 10.7 0.0 0.5
07:23 13.2 13.1 99 1021.7 8.3 W 10.7 0.0 0.5
07:24 13.3 13.2 99 1021.6 7.6 W 10.7 0.0 0.5
07:25 13.2 13.1 99 1021.5 10.7 WSW 10.7 0.0 0.5
07:26 13.3 13.2 99 1021.5 6.9 SW 10.7 0.0 0.5
07:27 13.3 13.2 99 1021.6 7.6 SW 10.7 0.0 0.5
07:28 13.3 13.2 99 1021.6 9.8 WNW 10.7 0.0 0.5
07:29 13.3 13.2 99 1021.4 7.6 SW 10.7 0.0 0.5
07:30 13.3 13.2 99 1021.6 7.6 W 10.7 0.0 0.5
07:31 13.3 13.2 99 1021.5 11.4 S 11.4 0.0 0.5
07:32 13.3 13.2 99 1021.6 8.3 SW 12.1 0.0 0.5
07:33 13.4 13.3 99 1021.7 9.2 SW 12.1 0.0 0.5
07:35 13.4 13.3 99 1021.5 10.7 WSW 12.1 0.0 0.5
07:36 13.4 13.3 99 1021.6 9.2 N 12.1 0.0 0.5
07:37 13.4 13.3 99 1021.4 11.4 WNW 12.1 0.0 0.5
07:38 13.4 13.3 99 1021.5 13.6 W 14.5 0.0 0.5
07:39 13.4 13.3 99 1021.4 10.7 SW 14.5 0.0 0.5
07:40 13.4 13.3 99 1021.5 10.7 SW 14.5 0.0 0.5
07:41 13.5 13.4 99 1021.5 8.3 SW 14.5 0.0 0.5
07:42 13.5 13.4 99 1021.5 9.8 SW 14.5 0.0 0.5
07:43 13.5 13.4 99 1021.5 9.8 SW 14.5 0.0 0.5
07:44 13.5 13.4 99 1021.6 10.7 W 14.5 0.0 0.5
07:45 13.5 13.4 99 1021.6 12.1 W 14.5 0.0 0.5
07:46 13.6 13.5 99 1021.5 7.6 NW 14.5 0.0 0.5
07:47 13.5 13.4 99 1021.6 9.2 WSW 14.5 0.0 0.5
07:49 13.6 13.5 99 1021.6 9.2 WSW 13.6 0.0 0.5
07:50 13.6 13.5 99 1021.7 9.2 W 13.6 0.0 0.5
07:51 13.6 13.5 99 1021.7 11.4 SW 13.6 0.0 0.5
07:52 13.7 13.6 99 1021.7 11.4 SW 13.6 0.0 0.5
07:53 13.6 13.5 99 1021.8 9.8 WSW 13.6 0.0 0.5
07:54 13.7 13.6 99 1021.7 7.6 SW 12.1 0.0 0.5
07:55 13.7 13.6 99 1021.7 10.7 SW 12.1 0.0 0.5
07:56 13.7 13.6 99 1021.8 9.8 W 12.1 0.0 0.5
07:57 13.7 13.6 99 1021.7 8.3 SW 12.1 0.0 0.5
07:58 13.7 13.6 99 1021.8 9.2 SW 12.1 0.0 0.5
07:59 13.8 13.7 99 1021.8 8.3 WNW 12.1 0.0 0.5
08:00 13.8 13.7 99 1021.8 9.2 WSW 12.1 0.0 0.5
08:01 13.8 13.7 99 1021.7 9.8 SW 12.1 0.0 0.5
08:02 13.8 13.7 99 1022.0 9.2 WSW 11.4 0.0 0.5
08:04 13.8 13.7 99 1021.8 9.2 W 10.7 0.0 0.5
08:05 13.9 13.8 99 1021.8 7.6 SW 10.7 0.0 0.5
08:06 13.9 13.8 99 1021.8 8.3 N 9.8 0.0 0.5
08:07 13.9 13.8 99 1021.9 8.3 NW 9.8 0.0 0.5
08:08 13.9 13.8 99 1021.8 6.9 SW 9.8 0.0 0.5
08:09 13.9 13.8 99 1021.9 10.7 SW 10.7 0.0 0.5
08:10 13.9 13.8 99 1021.8 8.3 SW 10.7 0.0 0.5
08:11 13.9 13.8 99 1021.9 8.3 SW 10.7 0.0 0.5
08:12 13.9 13.8 99 1021.9 8.3 SW 10.7 0.0 0.5
08:13 13.9 13.8 99 1021.8 10.7 SW 10.7 0.0 0.5
08:14 14.0 13.9 99 1022.0 9.2 SW 10.7 0.0 0.5
08:15 14.0 13.9 99 1021.9 8.3 S 10.7 0.0 0.5
08:16 14.0 13.9 99 1021.9 9.2 SW 10.7 0.0 0.5
08:18 14.0 13.9 99 1021.9 8.3 W 10.7 0.0 0.5
08:19 14.0 13.9 99 1022.0 7.6 W 10.7 0.0 0.5
08:20 14.0 13.9 99 1021.9 9.8 W 10.7 0.0 0.5
08:21 14.0 13.9 99 1021.9 9.8 W 10.7 0.0 0.5
08:22 14.1 14.0 99 1021.8 12.1 W 12.1 0.0 0.5
08:23 14.1 14.0 99 1021.9 7.6 WNW 12.1 0.0 0.5
08:24 14.1 14.0 99 1022.1 6.9 SW 12.1 0.0 0.5
08:25 14.1 14.0 99 1022.0 9.2 SW 12.1 0.0 0.5
08:26 14.1 14.0 99 1022.0 9.2 SW 12.1 0.0 0.5
08:27 14.1 14.0 99 1022.1 9.8 SW 12.1 0.0 0.5
08:28 14.1 14.0 99 1022.0 9.8 SW 12.1 0.0 0.5
08:29 14.2 14.1 99 1022.2 7.6 SW 12.1 0.0 0.5
08:30 14.1 14.0 99 1022.2 8.3 SW 12.1 0.0 0.5
08:31 14.2 14.1 99 1022.0 7.6 SW 12.1 0.0 0.5
08:33 14.3 14.2 99 1022.0 9.2 SW 12.1 0.0 0.5
08:34 14.3 14.2 99 1022.2 8.3 W 9.8 0.0 0.5
08:35 14.3 14.2 99 1022.1 8.3 SE 9.8 0.0 0.5
08:36 14.3 14.2 99 1022.1 7.6 SW 9.8 0.0 0.5
08:37 14.3 14.2 99 1022.2 9.2 SW 9.8 0.0 0.5
08:38 14.3 14.2 99 1022.2 8.3 SW 9.2 0.0 0.5
08:39 14.3 14.2 99 1022.1 7.6 WSW 9.2 0.0 0.5
08:40 14.3 14.2 99 1022.1 6.9 WNW 9.2 0.0 0.5
08:41 14.4 14.3 99 1022.2 7.6 W 9.2 0.0 0.5
08:42 14.4 14.3 99 1022.2 8.3 W 9.2 0.0 0.5
08:43 14.4 14.3 99 1022.3 8.3 WNW 9.2 0.0 0.5
08:44 14.4 14.3 99 1022.3 8.3 NW 9.2 0.0 0.5
08:45 14.4 14.3 99 1022.2 6.0 WSW 9.8 0.0 0.5
08:46 14.4 14.3 99 1022.3 7.6 W 9.8 0.0 0.5
08:48 14.4 14.3 99 1022.2 10.7 NW 10.7 0.0 0.5
08:49 14.5 14.4 99 1022.2 9.8 SW 12.1 0.0 0.5
08:50 14.5 14.4 99 1022.3 7.6 S 12.1 0.0 0.5
08:51 14.5 14.4 99 1022.4 6.9 W 12.1 0.0 0.5
08:52 14.5 14.4 99 1022.4 7.6 SW 12.1 0.0 0.5
08:53 14.5 14.4 99 1022.3 6.0 SW 12.1 0.0 0.5
08:54 14.5 14.4 99 1022.3 9.8 SW 12.1 0.0 0.5
08:55 14.5 14.4 99 1022.3 9.8 SW 12.1 0.0 0.5
08:56 14.5 14.4 99 1022.3 9.8 SW 12.1 0.0 0.5
08:57 14.5 14.4 99 1022.4 13.0 SW 13.0 0.0 0.5
08:58 14.5 14.4 99 1022.5 11.4 SW 13.0 0.0 0.5
08:59 14.5 14.4 99 1022.5 10.7 W 13.0 0.0 0.5
09:00 14.5 14.4 99 1022.4 9.2 SW 13.0 0.0 0.5
09:01 14.5 14.4 99 1022.3 9.8 SW 13.0 0.0 0.5
09:03 14.6 14.5 99 1022.4 6.0 W 13.0 0.0 0.5
09:04 14.6 14.5 99 1022.3 9.2 SW 13.0 0.0 0.5
09:06 14.5 14.4 99 1022.3 8.3 NW 13.0 0.0 0.5
09:07 14.5 14.4 99 1022.3 7.6 WSW 11.4 0.0 0.5
09:08 14.6 14.5 99 1022.4 9.2 SW 10.7 0.0 0.5
09:09 14.6 14.5 99 1022.4 5.4 SW 10.7 0.0 0.5
09:10 14.6 14.5 99 1022.3 8.3 WSW 10.7 0.0 0.5
09:11 14.6 14.5 99 1022.3 9.2 W 10.7 0.0 0.5
09:12 14.6 14.5 99 1022.4 7.6 WSW 9.2 0.0 0.5
09:13 14.6 14.5 99 1022.4 6.0 SW 9.2 0.0 0.5
09:14 14.6 14.5 99 1022.4 6.9 W 9.2 0.0 0.5
09:15 14.6 14.5 99 1022.4 6.0 SW 9.2 0.0 0.5
09:16 14.6 14.5 99 1022.5 6.0 SW 9.2 0.0 0.5
09:17 14.7 14.6 99 1022.3 11.4 W 12.1 0.0 0.5
09:18 14.7 14.6 99 1022.5 9.2 W 12.1 0.0 0.5
09:20 14.7 14.6 99 1022.4 7.6 SW 12.1 0.0 0.5
09:21 14.7 14.6 99 1022.2 7.6 NW 12.1 0.0 0.5
09:22 14.7 14.6 99 1022.5 7.6 SW 12.1 0.0 0.5
09:23 14.8 14.7 99 1022.5 8.3 S 12.1 0.0 0.5
09:24 14.7 14.6 99 1022.4 9.8 SW 12.1 0.0 0.5
09:25 14.8 14.7 99 1022.5 9.8 SW 12.1 0.0 0.5
09:26 14.8 14.7 99 1022.4 8.3 SW 12.1 0.0 0.5
09:27 14.8 14.7 99 1022.5 8.3 W 10.7 0.0 0.5
09:28 14.8 14.7 99 1022.5 8.3 W 10.7 0.0 0.5
09:29 14.8 14.7 99 1022.4 9.2 SW 10.7 0.0 0.5
09:30 14.9 14.8 99 1022.3 10.7 SW 10.7 0.0 0.5
09:31 14.9 14.8 99 1022.3 6.9 SW 10.7 0.0 0.5
09:32 14.9 14.8 99 1022.3 6.9 SW 10.7 0.0 0.5
09:33 15.0 14.9 99 1022.4 12.1 SW 12.1 0.0 0.5
09:35 15.0 14.9 99 1022.5 9.2 NW 12.1 0.0 0.5
09:36 15.1 15.0 99 1022.5 12.1 SW 12.1 0.0 0.5
09:37 15.1 15.0 99 1022.6 9.8 SW 12.1 0.0 0.5
09:38 15.1 15.0 99 1022.5 6.9 SW 12.1 0.0 0.5
09:39 15.1 15.0 99 1022.5 9.2 SW 12.1 0.0 0.5
09:40 15.2 15.1 99 1022.4 8.3 SW 12.1 0.0 0.5
09:41 15.2 15.1 99 1022.4 9.2 N 12.1 0.0 0.5
09:42 15.2 15.1 99 1022.4 9.8 SW 12.1 0.0 0.5
09:43 15.2 15.1 99 1022.6 7.6 SW 12.1 0.0 0.5
09:44 15.3 15.2 99 1022.5 12.1 WNW 12.1 0.0 0.5
09:45 15.3 15.2 99 1022.6 7.6 SW 12.1 0.0 0.5
09:46 15.3 15.2 99 1022.4 7.6 S 12.1 0.0 0.5
09:47 15.3 15.2 99 1022.5 11.4 SW 12.1 0.0 0.5
09:49 15.4 15.3 99 1022.3 7.6 SW 12.1 0.0 0.5
09:50 15.4 15.3 99 1022.5 6.0 SW 12.1 0.0 0.5
09:51 15.4 15.3 99 1022.3 6.9 W 12.1 0.0 0.5
09:52 15.4 15.3 99 1022.4 6.0 S 12.1 0.0 0.5
09:53 15.5 15.4 99 1022.4 4.5 SW 12.1 0.0 0.5
09:54 15.6 15.5 99 1022.5 7.6 SW 11.4 0.0 0.5
09:55 15.6 15.5 99 1022.4 9.2 SW 11.4 0.0 0.5
09:56 15.6 15.5 99 1022.5 7.6 S 11.4 0.0 0.5
09:57 15.7 15.6 99 1022.4 10.7 SW 10.7 0.0 0.5
09:58 15.7 15.6 99 1022.4 10.7 SW 10.7 0.0 0.5
09:59 15.7 15.6 99 1022.4 8.3 SW 10.7 0.0 0.5
10:00 15.8 15.7 99 1022.3 9.2 SW 10.7 0.0 0.5
10:01 15.7 15.6 99 1022.5 10.7 SW 10.7 0.0 0.5
10:02 15.8 15.7 99 1022.3 9.8 S 10.7 0.0 0.5
10:03 15.8 15.7 99 1022.4 11.4 SW 11.4 0.0 0.5
10:04 15.9 15.8 99 1022.4 11.4 SW 11.4 0.0 0.5
10:05 15.8 15.7 99 1022.4 10.7 S 11.4 0.0 0.5
10:06 15.9 15.8 99 1022.6 8.3 S 11.4 0.0 0.5
10:07 15.9 15.8 99 1022.6 9.8 SW 11.4 0.0 0.5
10:08 15.9 15.8 99 1022.5 10.7 SW 11.4 0.0 0.5
10:09 16.0 15.9 99 1022.5 6.9 SW 11.4 0.0 0.5
10:10 16.0 15.9 99 1022.5 13.0 SW 13.0 0.0 0.5
10:11 16.0 15.9 99 1022.4 9.2 SW 13.0 0.0 0.5
10:12 16.0 15.9 99 1022.4 9.8 SW 13.0 0.0 0.5
10:13 16.0 15.9 99 1022.5 8.3 S 13.0 0.0 0.5
10:14 16.0 15.9 99 1022.5 11.4 WSW 13.0 0.0 0.5
10:15 16.1 16.0 99 1022.5 6.9 SW 13.0 0.0 0.5
10:16 16.1 16.0 99 1022.4 12.1 S 13.0 0.0 0.5
10:17 16.1 16.0 99 1022.4 12.1 SW 13.0 0.0 0.5
10:19 16.1 16.0 99 1022.5 8.3 SW 13.0 0.0 0.5
10:20 16.1 16.0 99 1022.6 8.3 SSW 13.0 0.0 0.5
10:21 16.1 16.0 99 1022.4 9.8 WSW 12.1 0.0 0.5
10:22 16.1 16.0 99 1022.5 10.7 SSW 12.1 0.0 0.5
10:23 16.1 16.0 99 1022.3 7.6 SW 12.1 0.0 0.5
10:24 16.1 16.0 99 1022.4 12.1 SW 12.1 0.0 0.5
10:25 16.1 16.0 99 1022.4 11.4 S 12.1 0.0 0.5
10:26 16.1 16.0 99 1022.4 13.0 SW 13.0 0.0 0.5
10:27 16.1 16.0 99 1022.6 10.7 SW 13.0 0.0 0.5
10:28 16.1 16.0 99 1022.6 8.3 SW 13.0 0.0 0.5
10:29 16.0 15.9 99 1022.5 9.2 SW 13.0 0.0 0.5
10:30 16.0 15.9 99 1022.5 9.2 S 13.0 0.0 0.5
10:31 16.0 15.9 99 1022.4 10.7 SW 13.0 0.0 0.5
10:33 16.0 15.9 99 1022.4 10.7 SW 13.0 0.0 0.5
10:34 15.9 15.8 99 1022.5 8.3 S 13.0 0.0 0.5
10:35 15.9 15.8 99 1022.4 9.2 SW 13.0 0.0 0.5
10:36 15.9 15.8 99 1022.5 9.8 SE 10.7 0.0 0.5
10:37 15.8 15.7 99 1022.4 10.7 S 10.7 0.0 0.5
10:38 15.8 15.7 99 1022.5 9.2 S 10.7 0.0 0.5
10:39 15.8 15.7 99 1022.4 6.0 SE 10.7 0.0 0.5
10:40 15.7 15.6 99 1022.7 9.2 SE 10.7 0.0 0.5
10:41 15.7 15.6 99 1022.6 10.7 SSW 10.7 0.0 0.5
10:42 15.7 15.6 99 1022.5 9.8 SSW 10.7 0.0 0.5
10:43 15.7 15.6 99 1022.4 9.8 S 10.7 0.0 0.5
10:44 15.6 15.5 99 1022.5 12.1 S 12.1 0.0 0.5
10:45 15.6 15.5 99 1022.7 9.2 SW 12.1 0.0 0.5
10:46 15.6 15.5 99 1022.5 12.1 S 12.1 0.0 0.5
10:47 15.5 15.4 99 1022.5 11.4 S 12.1 0.0 0.5
10:48 15.5 15.4 99 1022.6 13.6 SW 13.6 0.0 0.5
10:49 15.5 15.4 99 1022.5 10.7 SE 13.6 0.0 0.5
10:50 15.5 15.4 99 1022.6 11.4 SE 13.6 0.0 0.5
10:51 15.5 15.4 99 1022.6 13.6 SW 13.6 0.0 0.5
10:52 15.4 15.3 99 1022.7 10.7 S 13.6 0.0 0.5
10:53 15.4 15.3 99 1022.6 13.0 S 13.6 0.0 0.5
10:54 15.3 15.2 99 1022.6 10.7 SW 13.6 0.0 0.5
10:55 15.3 15.2 99 1022.6 10.7 SW 13.6 0.0 0.5
10:56 15.3 15.2 99 1022.7 11.4 SW 13.6 0.0 0.5
10:57 15.3 15.2 99 1022.7 12.1 S 13.6 0.0 0.5
10:58 15.2 15.1 99 1022.7 12.1 S 13.6 0.8 0.6
10:59 15.2 15.1 99 1022.8 10.7 W 13.6 0.8 0.6
11:00 15.2 15.1 99 1022.7 9.8 SW 13.6 0.8 0.6
11:01 15.2 15.1 99 1022.7 9.8 SW 13.6 0.8 0.6
11:02 15.2 15.1 99 1022.7 11.4 W 13.6 0.8 0.6
11:03 15.2 15.1 99 1022.7 7.6 NW 13.6 0.0 0.6
11:04 15.2 15.1 99 1022.7 13.6 S 13.6 0.0 0.6
11:05 15.2 15.1 99 1022.7 10.7 SW 13.6 0.0 0.6
11:06 15.2 15.1 99 1022.7 10.7 SE 13.6 0.0 0.6
11:07 15.1 15.0 99 1022.7 14.5 SE 14.5 0.0 0.6
11:08 15.2 15.1 99 1022.8 12.1 SW 14.5 0.0 0.6
11:09 15.2 15.1 99 1022.7 13.0 SW 14.5 0.0 0.6
11:10 15.1 15.0 99 1022.7 10.7 S 14.5 0.0 0.6
11:11 15.1 15.0 99 1022.9 9.2 NNE 14.5 0.8 0.6
11:12 15.1 15.0 99 1022.7 10.7 NNE 14.5 0.8 0.6
11:13 15.2 15.1 99 1022.8 12.1 SW 14.5 0.8 0.6
11:14 15.2 15.1 99 1022.8 9.8 SW 14.5 0.8 0.6
11:15 15.2 15.1 99 1022.8 8.3 SW 14.5 0.8 0.6
11:16 15.2 15.1 99 1022.8 9.2 S 14.5 0.0 0.6
11:17 15.2 15.1 99 1022.8 11.4 S 14.5 0.0 0.6
11:18 15.2 15.1 99 1022.9 9.2 S 14.5 0.0 0.6
11:19 15.2 15.1 99 1022.8 10.7 SW 14.5 0.0 0.6
11:20 15.2 15.1 99 1023.0 8.3 S 14.5 0.0 0.6
11:21 15.2 15.1 99 1022.8 13.0 S 14.5 0.0 0.6
11:22 15.2 15.1 99 1022.8 12.1 SW 14.5 0.0 0.6
11:23 15.2 15.1 99 1022.8 13.6 S 14.5 0.0 0.6
11:24 15.2 15.1 99 1022.8 13.6 SW 14.5 0.0 0.6
11:25 15.2 15.1 99 1022.7 13.0 SW 14.5 0.0 0.6
11:26 15.2 15.1 99 1022.8 11.4 SW 13.6 0.0 0.6
11:27 15.2 15.1 99 1022.8 11.4 SW 13.6 0.0 0.6
11:28 15.2 15.1 99 1023.0 13.6 S 13.6 0.0 0.6
11:29 15.2 15.1 99 1022.9 15.9 S 15.9 0.0 0.6
11:30 15.2 15.1 99 1022.8 10.7 SW 15.9 0.0 0.6
11:31 15.2 15.1 99 1022.8 11.4 SW 15.9 0.0 0.6
11:32 15.2 15.1 99 1022.8 9.8 W 15.9 0.0 0.6
11:33 15.2 15.1 99 1022.8 13.0 SE 15.9 0.0 0.6
11:34 15.2 15.1 99 1022.8 9.2 SE 15.9 0.0 0.6
11:35 15.2 15.1 99 1022.9 14.5 SW 15.9 0.0 0.6
11:36 15.2 15.1 99 1022.8 13.6 SW 15.9 0.0 0.6
11:37 15.2 15.1 99 1022.9 12.1 SSW 15.9 0.0 0.6
11:38 15.2 15.1 99 1022.9 13.0 S 15.9 0.0 0.6
11:39 15.2 15.1 99 1022.9 9.2 S 14.5 0.0 0.6
11:40 15.2 15.1 99 1022.9 15.9 S 15.9 0.0 0.6
11:41 15.2 15.1 99 1023.0 10.7 S 15.9 0.0 0.6
11:42 15.2 15.1 99 1022.9 10.7 S 15.9 0.0 0.6
11:43 15.2 15.1 99 1023.0 12.1 S 15.9 0.0 0.6
11:44 15.3 15.2 99 1023.0 13.0 SW 15.9 0.0 0.6
11:45 15.2 15.1 99 1022.9 13.6 SW 15.9 0.0 0.6
11:46 15.2 15.1 99 1022.9 13.0 SSW 15.9 0.0 0.6
11:47 15.2 15.1 99 1022.9 15.9 S 15.9 0.0 0.6
11:48 15.2 15.1 99 1022.7 15.2 SW 15.9 0.0 0.6
11:49 15.3 15.2 99 1022.8 12.1 SW 15.9 0.0 0.6
11:50 15.2 15.1 99 1022.9 9.2 S 15.9 0.0 0.6
11:51 15.3 15.2 99 1022.8 13.0 SW 15.9 0.0 0.6
11:52 15.3 15.2 99 1022.9 12.1 S 15.9 0.0 0.6
11:53 15.2 15.1 99 1022.9 13.0 S 15.9 0.0 0.6
11:54 15.3 15.2 99 1022.8 8.3 SW 15.9 0.0 0.6
11:55 15.3 15.2 99 1022.9 12.1 SW 15.9 0.0 0.6
11:56 15.3 15.2 99 1022.9 12.1 SW 15.9 0.0 0.6
11:57 15.3 15.2 99 1022.9 13.0 S 15.2 0.0 0.6
11:58 15.3 15.2 99 1022.9 10.7 SSW 15.2 0.0 0.6
11:59 15.4 15.3 99 1022.9 13.0 SW 14.5 0.0 0.6
12:00 15.4 15.3 99 1022.9 12.1 W 14.5 0.0 0.6
12:01 15.4 15.3 99 1022.8 13.6 SW 14.5 0.0 0.6
12:03 15.4 15.3 99 1022.9 9.8 S 14.5 0.0 0.6
12:04 15.5 15.4 99 1022.8 12.1 SW 15.9 0.0 0.6
12:05 15.5 15.4 99 1022.9 14.5 SW 15.9 0.0 0.6
12:06 15.4 15.3 99 1023.0 15.9 S 15.9 0.0 0.6
12:07 15.5 15.4 99 1023.1 14.5 S 15.9 0.0 0.6
12:08 15.4 15.3 99 1023.0 12.1 S 15.9 0.0 0.6
12:09 15.4 15.3 99 1023.0 13.6 SW 15.9 0.0 0.6
12:10 15.4 15.3 99 1023.0 11.4 S 15.9 0.0 0.6
12:11 15.4 15.3 99 1023.0 11.4 S 15.9 0.0 0.6
12:12 15.4 15.3 99 1023.0 11.4 S 15.9 0.0 0.6
12:13 15.4 15.3 99 1023.1 17.4 SW 17.4 0.0 0.6
12:14 15.4 15.3 99 1022.9 13.6 S 17.4 0.0 0.6
12:15 15.5 15.4 99 1023.0 14.5 SW 17.4 0.0 0.6
12:16 15.5 15.4 99 1022.8 14.5 SW 17.4 0.0 0.6
12:17 15.4 15.3 99 1023.0 8.3 W 17.4 0.0 0.6
12:18 15.5 15.4 99 1023.1 13.6 S 17.4 0.0 0.6
12:19 15.5 15.4 99 1023.1 12.1 S 17.4 0.0 0.6
12:20 15.5 15.4 99 1023.1 13.6 S 17.4 0.0 0.6
12:21 15.5 15.4 99 1023.0 13.6 S 17.4 0.0 0.6
12:22 15.5 15.4 99 1023.0 9.8 S 17.4 0.0 0.6
12:23 15.5 15.4 99 1023.1 10.7 SW 15.2 0.0 0.6
12:24 15.5 15.4 99 1022.9 10.7 SW 15.2 0.0 0.6
12:25 15.5 15.4 99 1023.0 15.2 SSW 15.2 0.0 0.6
12:26 15.5 15.4 99 1023.2 9.2 NW 15.2 0.0 0.6
12:27 15.5 15.4 99 1023.2 9.2 NW 15.2 0.0 0.6
12:28 15.6 15.5 99 1023.0 13.0 S 15.2 0.0 0.6
12:29 15.6 15.5 99 1023.0 13.0 NW 15.2 0.0 0.6
12:30 15.6 15.5 99 1023.0 14.5 SW 15.2 0.0 0.6
12:31 15.6 15.5 99 1023.0 9.8 SW 15.2 0.0 0.6
12:32 15.6 15.5 99 1022.9 11.4 SW 15.2 0.0 0.6
12:33 15.7 15.6 99 1023.0 8.3 SW 15.2 0.0 0.6
12:34 15.7 15.6 99 1022.8 10.7 S 15.2 0.0 0.6
12:35 15.7 15.6 99 1022.8 13.6 SW 15.2 0.0 0.6
12:36 15.7 15.6 99 1022.9 12.1 S 14.5 0.0 0.6
12:37 15.8 15.7 99 1022.8 9.2 SSW 14.5 0.0 0.6
12:38 15.8 15.7 99 1022.8 12.1 S 14.5 0.0 0.6
12:39 15.8 15.7 99 1022.9 13.0 S 14.5 0.0 0.6
12:40 15.8 15.7 99 1022.9 13.0 S 13.6 0.0 0.6
12:41 15.8 15.7 99 1022.9 9.8 SW 15.2 0.0 0.6
12:42 15.8 15.7 99 1022.9 9.8 SW 15.2 0.0 0.6
12:43 15.8 15.7 99 1022.9 9.2 SW 15.2 0.0 0.6
12:44 15.8 15.7 99 1022.8 12.1 S 15.2 0.0 0.6
12:45 15.8 15.7 99 1022.8 9.8 SW 15.2 0.0 0.6
12:46 15.8 15.7 99 1022.9 9.2 S 15.2 0.0 0.6
12:47 15.9 15.8 99 1022.9 8.3 SW 15.2 0.0 0.6
12:48 15.9 15.8 99 1022.6 9.8 SW 15.2 0.0 0.6
12:49 15.9 15.8 99 1022.8 7.6 SW 15.2 0.0 0.6
12:50 15.9 15.8 99 1022.9 13.0 SW 15.2 0.0 0.6
12:51 15.9 15.8 99 1022.8 12.1 SW 13.0 0.0 0.6
12:52 15.9 15.8 99 1022.8 11.4 SW 13.0 0.0 0.6
12:53 15.9 15.8 99 1022.8 9.8 S 13.0 0.0 0.6
12:54 15.9 15.8 99 1022.7 9.2 SW 13.0 0.0 0.6
12:55 15.9 15.8 99 1022.7 9.2 SW 13.0 0.0 0.6
12:56 15.9 15.8 99 1022.8 9.2 SSE 13.0 0.0 0.6
12:57 16.0 15.9 99 1022.7 11.4 SW 13.0 0.0 0.6
12:58 16.0 15.9 99 1022.8 8.3 SW 13.0 0.0 0.6
12:59 16.0 15.9 99 1022.7 10.7 S 13.0 0.0 0.6
13:00 16.0 15.9 99 1022.8 11.4 SW 13.0 0.0 0.6
13:01 16.0 15.9 99 1022.8 14.5 S 14.5 0.0 0.6
13:02 16.0 15.9 99 1022.8 10.7 S 14.5 0.0 0.6
13:03 16.1 16.0 99 1022.8 8.3 S 14.5 0.0 0.6
13:04 16.1 16.0 99 1022.8 9.8 SW 14.5 0.0 0.6
13:05 16.2 16.1 99 1022.8 12.1 SW 14.5 0.0 0.6
13:07 16.3 16.2 99 1022.7 9.8 S 14.5 0.0 0.6
13:08 16.3 16.2 99 1022.8 9.8 SW 14.5 0.0 0.6
13:09 16.3 16.2 99 1022.7 8.3 SW 14.5 0.0 0.6
13:10 16.4 16.3 99 1022.8 9.8 S 14.5 0.0 0.6
13:11 16.4 16.3 99 1022.8 9.8 NW 12.1 0.0 0.6
13:12 16.4 16.3 99 1022.6 10.7 SW 12.1 0.0 0.6
13:13 16.5 16.4 99 1022.7 8.3 SW 12.1 0.0 0.6
13:14 16.5 16.4 99 1022.7 8.3 SW 12.1 0.0 0.6
13:15 16.5 16.4 99 1022.8 11.4 SW 12.1 0.0 0.6
13:16 16.5 16.4 99 1022.8 9.8 SW 12.1 0.0 0.6
13:17 16.5 16.4 99 1022.8 10.7 SW 13.0 0.0 0.6
13:18 16.5 16.4 99 1022.8 9.2 S 13.0 0.0 0.6
13:19 16.5 16.4 99 1022.8 9.2 SW 13.0 0.0 0.6
13:20 16.5 16.4 99 1022.8 9.8 SE 13.0 0.0 0.6
13:21 16.6 16.5 99 1022.9 10.7 S 13.0 0.0 0.6
13:22 16.6 16.5 99 1022.8 11.4 SW 13.0 0.0 0.6
13:23 16.6 16.5 99 1022.8 12.1 S 13.0 0.0 0.6
13:24 16.6 16.5 99 1022.9 9.8 S 13.0 0.0 0.6
13:25 16.6 16.5 99 1022.8 9.8 SW 13.0 0.0 0.6
13:26 16.6 16.5 99 1022.8 12.1 NW 12.1 0.0 0.6
13:27 16.6 16.5 99 1022.7 9.8 SW 12.1 0.0 0.6
13:28 16.6 16.5 99 1022.7 9.8 S 12.1 0.0 0.6
13:29 16.6 16.5 99 1022.7 11.4 SW 12.1 0.0 0.6
13:30 16.6 16.5 99 1022.8 9.8 SW 12.1 0.0 0.6
13:31 16.6 16.5 99 1022.7 10.7 SW 12.1 0.0 0.6
13:32 16.6 16.5 99 1022.7 8.3 W 14.5 0.0 0.6
13:33 16.7 16.6 99 1022.7 10.7 SW 14.5 0.0 0.6
13:34 16.7 16.6 99 1022.6 10.7 NW 14.5 0.0 0.6
13:35 16.7 16.6 99 1022.6 12.1 SW 14.5 0.0 0.6
13:36 16.7 16.6 99 1022.7 9.2 SW 14.5 0.0 0.6
13:37 16.8 16.7 99 1022.8 7.6 SW 14.5 0.0 0.6
13:38 16.8 16.7 99 1022.7 9.2 S 14.5 0.0 0.6
13:39 16.8 16.7 99 1022.6 6.9 SW 14.5 0.0 0.6
13:40 16.9 16.8 99 1022.6 9.2 SW 14.5 0.0 0.6
13:41 16.9 16.8 99 1022.6 9.8 SW 14.5 0.0 0.6
13:42 16.9 16.8 99 1022.8 10.7 S 12.1 0.0 0.6
13:43 17.0 16.9 99 1022.7 10.7 SW 12.1 0.0 0.6
13:44 17.0 16.9 99 1022.7 11.4 S 12.1 0.0 0.6
13:45 17.0 16.9 99 1022.7 12.1 S 12.1 0.0 0.6
13:46 17.0 16.9 99 1022.7 11.4 S 12.1 0.0 0.6
13:47 17.0 16.9 99 1022.7 9.2 W 12.1 0.0 0.6
13:48 17.0 16.9 99 1022.8 9.8 SW 12.1 0.0 0.6
13:49 17.1 17.0 99 1022.8 11.4 SE 12.1 0.0 0.6
13:50 17.1 17.0 99 1022.8 9.8 SE 12.1 0.0 0.6
13:51 17.1 17.0 99 1022.7 12.1 SW 12.1 0.0 0.6
13:52 17.1 17.0 99 1022.8 10.7 S 12.1 0.0 0.6
13:53 17.1 17.0 99 1022.8 9.8 SW 12.1 0.0 0.6
13:54 17.2 17.1 99 1022.8 7.6 SW 12.1 0.0 0.6
13:55 17.2 17.1 99 1022.8 12.1 S 12.1 0.0 0.6
13:56 17.2 17.1 99 1022.8 7.6 SSW 12.1 0.0 0.6
13:57 17.3 17.2 99 1022.8 6.9 SW 12.1 0.0 0.6
13:58 17.3 17.2 99 1022.8 7.6 SSW 12.1 0.0 0.6
13:59 17.4 17.3 99 1022.7 9.8 SW 12.1 0.0 0.6
14:00 17.4 17.3 99 1022.6 6.9 SE 12.1 0.0 0.6
14:01 17.4 17.3 99 1022.6 13.0 SE 13.0 0.0 0.6
14:02 17.4 17.3 99 1022.6 13.0 SE 13.0 0.0 0.6
14:03 17.5 17.4 99 1022.7 12.1 SW 13.0 0.0 0.6
14:04 17.5 17.4 99 1022.6 6.9 SE 13.0 0.0 0.6
14:05 17.5 17.4 99 1022.5 10.7 WSW 13.0 0.0 0.6
14:06 17.6 17.5 99 1022.8 15.9 SW 15.9 0.0 0.6
14:07 17.6 17.5 99 1022.6 10.7 SW 15.9 0.0 0.6
14:08 17.7 17.6 99 1022.5 9.2 SW 15.9 0.0 0.6
14:09 17.7 17.6 99 1022.5 9.8 SW 15.9 0.0 0.6
14:10 17.8 17.7 99 1022.6 12.1 SW 15.9 0.0 0.6
14:11 17.8 17.7 99 1022.6 12.1 SW 15.9 0.0 0.6
14:12 17.8 17.7 99 1022.5 12.1 SSW 15.9 0.0 0.6
14:13 17.9 17.8 99 1022.6 9.8 W 15.9 0.0 0.6
14:14 17.8 17.7 99 1022.5 7.6 SW 15.9 0.0 0.6
14:15 17.9 17.8 99 1022.6 7.6 S 15.9 0.0 0.6
14:16 17.9 17.8 99 1022.6 9.2 S 13.6 0.0 0.6
14:17 17.9 17.8 99 1022.6 13.6 SW 13.6 0.0 0.6
14:18 17.9 17.8 99 1022.6 9.2 S 13.6 0.0 0.6
14:19 18.0 17.9 99 1022.7 10.7 SW 13.6 0.0 0.6
14:20 18.0 17.9 99 1022.6 11.4 W 13.6 0.0 0.6
14:21 18.0 17.9 99 1022.5 9.2 SW 13.6 0.0 0.6
14:22 17.9 17.8 99 1022.7 12.1 SW 13.6 0.0 0.6
14:23 18.0 17.9 99 1022.8 9.2 SE 13.6 0.0 0.6
14:24 18.1 18.0 99 1022.6 12.1 WSW 13.6 0.0 0.6
14:25 18.1 18.0 99 1022.7 13.6 SW 13.6 0.0 0.6
14:26 18.1 18.0 99 1022.5 9.2 W 13.6 0.0 0.6
14:27 18.1 18.0 99 1022.5 10.7 SW 13.6 0.0 0.6
14:28 18.1 18.0 99 1022.7 12.1 SW 13.6 0.0 0.6
14:29 18.2 18.1 99 1022.7 13.6 SW 13.6 0.0 0.6
14:30 18.2 18.1 99 1022.8 12.1 S 13.6 0.0 0.6
14:31 18.2 18.1 99 1022.6 11.4 SW 13.6 0.0 0.6
14:32 18.2 18.1 99 1022.6 11.4 SW 13.6 0.0 0.6
14:33 18.2 18.1 99 1022.6 11.4 S 13.6 0.0 0.6
14:34 18.3 18.2 99 1022.7 8.3 S 13.6 0.0 0.6
14:35 18.3 18.2 99 1022.6 13.0 SSW 13.6 0.0 0.6
14:36 18.3 18.2 99 1022.6 13.6 SW 13.6 0.0 0.6
14:37 18.3 18.2 99 1022.7 12.1 W 13.6 0.0 0.6
14:38 18.3 18.2 99 1022.6 9.8 SW 13.6 0.0 0.6
14:39 18.4 18.3 99 1022.8 11.4 SW 13.6 0.0 0.6
14:40 18.4 18.3 99 1022.6 10.7 SW 13.6 0.0 0.6
14:41 18.4 18.3 99 1022.7 7.6 NW 13.6 0.0 0.6
14:42 18.4 18.3 99 1022.7 7.6 NW 13.6 0.0 0.6
14:43 18.4 18.3 99 1022.7 10.7 SW 13.6 0.0 0.6
14:44 18.4 18.3 99 1022.8 14.5 S 14.5 0.0 0.6
14:45 18.4 18.3 99 1022.8 9.8 NW 14.5 0.0 0.6
14:46 18.4 18.3 99 1022.9 11.4 NW 14.5 0.0 0.6
14:47 18.4 18.3 99 1022.7 10.7 SW 14.5 0.0 0.6
14:48 18.4 18.3 99 1023.0 13.6 S 14.5 0.0 0.6
14:49 18.4 18.3 99 1022.9 13.0 NE 14.5 0.0 0.6
14:50 18.4 18.3 99 1022.7 10.7 SW 14.5 0.0 0.6
14:51 18.4 18.3 99 1022.6 11.4 SW 14.5 0.0 0.6
14:52 18.4 18.3 99 1022.7 9.8 WNW 14.5 0.0 0.6
14:53 18.4 18.3 99 1022.8 8.3 S 14.5 0.0 0.6
14:54 18.4 18.3 99 1022.8 9.8 SW 14.5 0.0 0.6
14:55 18.4 18.3 99 1022.7 7.6 SW 13.6 0.0 0.6
14:56 18.4 18.3 99 1022.8 9.2 SW 13.6 0.0 0.6
14:57 18.4 18.3 99 1022.8 9.8 S 13.6 0.0 0.6
14:58 18.3 18.2 99 1022.7 15.2 SW 15.2 0.0 0.6
14:59 18.3 18.2 99 1023.0 11.4 SSW 15.2 0.0 0.6
15:00 18.3 18.2 99 1022.8 10.7 SW 15.2 0.0 0.6
15:01 18.3 18.2 99 1022.8 10.7 SW 15.2 0.0 0.6
15:02 18.3 18.2 99 1022.8 10.7 SW 15.2 0.0 0.6
15:03 18.3 18.2 99 1022.8 9.2 S 15.2 0.0 0.6
15:04 18.3 18.2 99 1022.7 9.2 SW 15.2 0.0 0.6
15:05 18.2 18.1 99 1023.0 9.2 SW 15.2 0.0 0.6
15:07 18.3 18.2 99 1022.7 9.8 WSW 15.2 0.0 0.6
15:08 18.2 18.1 99 1022.8 10.7 SW 13.6 0.0 0.6
15:09 18.2 18.1 99 1022.8 8.3 S 12.1 0.0 0.6
15:10 18.2 18.1 99 1022.8 9.8 SW 12.1 0.0 0.6
15:11 18.2 18.1 99 1022.9 11.4 SW 12.1 0.0 0.6
15:12 18.2 18.1 99 1022.9 10.7 SW 11.4 0.0 0.6
15:13 18.3 18.2 99 1022.7 12.1 W 12.1 0.0 0.6
15:14 18.3 18.2 99 1022.8 10.7 WNW 12.1 0.0 0.6
15:15 18.3 18.2 99 1022.7 9.8 SW 12.1 0.0 0.6
15:16 18.3 18.2 99 1022.9 6.9 SW 12.1 0.0 0.6
15:17 18.3 18.2 99 1022.8 9.2 SW 12.1 0.0 0.6
15:18 18.3 18.2 99 1022.7 11.4 SW 12.1 0.0 0.6
15:19 18.3 18.2 99 1022.8 10.7 SW 12.1 0.0 0.6
15:20 18.3 18.2 99 1022.8 9.2 WSW 12.1 0.0 0.6
15:21 18.3 18.2 99 1022.9 11.4 SW 12.1 0.0 0.6
15:22 18.3 18.2 99 1022.8 15.9 SW 15.9 0.0 0.6
15:23 18.3 18.2 99 1022.9 9.2 NNW 15.9 0.0 0.6
15:24 18.3 18.2 99 1022.7 9.8 S 15.9 0.0 0.6
15:25 18.3 18.2 99 1022.8 9.2 S 15.9 0.0 0.6
15:26 18.3 18.2 99 1022.8 7.6 SSW 15.9 0.0 0.6
15:27 18.3 18.2 99 1022.8 6.0 S 15.9 0.0 0.6
15:28 18.3 18.2 99 1022.9 6.0 S 15.9 0.0 0.6
15:29 18.2 18.1 99 1022.9 12.1 S 15.9 0.0 0.6
15:30 18.2 18.1 99 1022.9 10.7 S 15.9 0.0 0.6
15:31 18.2 18.1 99 1022.9 11.4 SSW 15.9 0.0 0.6
15:32 18.1 18.0 99 1022.7 7.6 SW 12.1 0.0 0.6
15:33 18.1 18.0 99 1022.5 7.6 SE 12.1 0.0 0.6
15:34 18.1 18.0 99 1022.7 10.7 SW 12.1 0.0 0.6
15:35 18.0 17.9 99 1022.6 10.7 S 12.1 0.0 0.6
15:36 18.0 17.9 99 1022.7 9.8 SW 12.1 0.0 0.6
15:37 18.0 17.9 99 1022.6 11.4 SW 12.1 0.0 0.6
15:38 17.9 17.8 99 1022.8 9.8 SSW 12.1 0.0 0.6
15:39 17.9 17.8 99 1022.8 7.6 SW 12.1 0.0 0.6
15:40 17.9 17.8 99 1022.7 9.2 NW 11.4 0.0 0.6
15:42 17.9 17.8 99 1022.8 9.2 S 12.1 0.0 0.6
15:43 17.8 17.7 99 1022.7 10.7 WNW 12.1 0.0 0.6
15:44 17.8 17.7 99 1022.8 11.4 S 12.1 0.0 0.6
15:45 17.8 17.7 99 1022.7 10.7 S 13.0 0.0 0.6
15:46 17.8 17.7 99 1022.8 9.8 S 13.0 0.0 0.6
15:47 17.8 17.7 99 1022.7 13.0 SE 13.0 0.0 0.6
15:48 17.8 17.7 99 1022.7 8.3 S 13.0 0.0 0.6
15:49 17.8 17.7 99 1022.8 9.2 S 13.0 0.0 0.6
15:50 17.8 17.7 99 1022.7 9.8 SW 13.0 0.0 0.6
15:51 17.8 17.7 99 1022.9 9.8 S 13.0 0.0 0.6
15:52 17.7 17.6 99 1022.9 9.2 SW 13.0 0.0 0.6
15:53 17.8 17.7 99 1023.0 8.3 S 13.0 0.0 0.6
15:54 17.7 17.6 99 1022.8 11.4 SW 13.0 0.0 0.6
15:55 17.7 17.6 99 1023.1 10.7 SW 13.0 0.0 0.6
15:56 17.7 17.6 99 1022.9 8.3 S 13.0 0.0 0.6
15:57 17.8 17.7 99 1022.9 9.8 S 13.0 0.0 0.6
15:59 17.7 17.6 99 1022.8 12.1 SW 13.0 0.0 0.6
16:00 17.7 17.6 99 1022.8 10.7 SW 13.0 0.0 0.6
16:01 17.7 17.6 99 1023.0 11.4 SW 13.0 0.0 0.6
16:02 17.7 17.6 99 1022.8 9.2 S 13.0 0.0 0.6
16:03 17.7 17.6 99 1022.8 9.2 S 13.0 0.0 0.6
16:04 17.7 17.6 99 1022.8 12.1 S 13.0 0.0 0.6
16:05 17.7 17.6 99 1022.8 10.7 S 13.6 0.0 0.6
16:06 17.7 17.6 99 1022.8 8.3 SE 13.6 0.0 0.6
16:07 17.7 17.6 99 1022.8 8.3 SE 13.6 0.0 0.6
16:08 17.7 17.6 99 1022.8 12.1 S 13.6 0.0 0.6
16:09 17.7 17.6 99 1022.8 13.6 S 15.9 0.0 0.6
16:10 17.7 17.6 99 1022.8 14.5 S 15.9 0.0 0.6
16:11 17.8 17.7 99 1022.8 13.0 S 15.9 0.0 0.6
16:12 17.7 17.6 99 1022.8 13.0 SW 15.9 0.0 0.6
16:13 17.8 17.7 99 1022.8 11.4 S 15.9 0.0 0.6
16:14 17.8 17.7 99 1022.9 14.5 SW 15.9 0.0 0.6
16:16 17.8 17.7 99 1022.8 12.1 NW 15.9 0.0 0.6
16:17 17.9 17.8 99 1022.6 15.9 SW 19.0 0.0 0.6
16:18 17.9 17.8 99 1022.8 12.1 SW 19.0 0.0 0.6
16:19 18.0 17.9 99 1022.8 11.4 NE 19.0 0.0 0.6
16:20 18.0 17.9 99 1022.9 14.5 NW 19.0 0.0 0.6
16:21 18.1 18.0 99 1022.9 13.6 S 19.0 0.0 0.6
16:22 18.1 18.0 99 1022.9 14.5 S 19.0 0.0 0.6
16:23 18.1 18.0 99 1022.9 14.5 S 19.0 0.0 0.6
16:24 18.1 18.0 99 1022.8 14.5 S 19.0 0.0 0.6
16:25 18.1 18.0 99 1022.9 12.1 S 19.0 0.0 0.6
16:26 18.1 18.0 99 1022.8 10.7 SW 19.0 0.0 0.6
16:27 18.1 18.0 99 1022.9 10.7 SW 19.0 0.0 0.6
16:28 18.1 18.0 99 1022.8 9.8 SW 15.9 0.0 0.6
16:29 18.2 18.1 99 1022.8 12.1 SW 14.5 0.0 0.6
16:30 18.2 18.1 99 1022.8 10.7 S 14.5 0.0 0.6
16:32 18.2 18.1 99 1022.9 12.1 S 14.5 0.0 0.6
16:33 18.1 18.0 99 1022.8 13.6 S 14.5 0.0 0.6
16:34 18.1 18.0 99 1022.8 15.2 S 15.2 0.0 0.6
16:35 18.1 18.0 99 1023.0 15.2 WSW 15.2 0.0 0.6
16:36 18.0 17.9 99 1022.9 10.7 SW 15.2 0.0 0.6
16:37 18.0 17.9 99 1022.8 11.4 S 15.2 0.0 0.6
16:38 17.9 17.8 99 1022.9 10.7 S 15.2 0.0 0.6
16:39 17.9 17.8 99 1023.0 11.4 SW 15.2 0.0 0.6
16:40 17.9 17.8 99 1022.9 12.1 S 15.2 0.0 0.6
16:41 17.8 17.7 99 1023.0 12.1 S 15.2 0.0 0.6
16:42 17.8 17.7 99 1023.1 14.5 S 15.2 0.0 0.6
16:43 17.8 17.7 99 1023.0 13.0 S 15.2 0.0 0.6
16:44 17.7 17.6 99 1023.0 13.0 SW 15.2 0.0 0.6
16:45 17.7 17.6 99 1023.0 11.4 S 15.2 0.0 0.6
16:46 17.6 17.5 99 1023.0 12.1 SE 14.5 0.0 0.6
16:47 17.7 17.6 99 1023.0 11.4 S 14.5 0.0 0.6
16:48 17.6 17.5 99 1022.9 15.9 S 15.9 0.0 0.6
16:49 17.6 17.5 99 1023.1 10.7 SW 15.9 0.0 0.6
16:50 17.6 17.5 99 1023.0 9.2 S 15.9 0.0 0.6
16:51 17.6 17.5 99 1023.0 12.1 S 15.9 0.0 0.6
16:52 17.6 17.5 99 1023.2 15.2 S 15.9 0.0 0.6
16:53 17.5 17.4 99 1023.1 13.0 SW 15.9 0.0 0.6
16:54 17.5 17.4 99 1023.3 14.5 S 15.9 0.0 0.6
16:55 17.5 17.4 99 1023.1 13.6 SW 15.9 0.0 0.6
16:56 17.4 17.3 99 1023.1 13.0 NW 15.9 0.0 0.6
16:57 17.4 17.3 99 1023.1 12.1 SW 15.9 0.0 0.6
16:58 17.4 17.3 99 1023.1 12.1 SW 15.9 0.0 0.6
16:59 17.3 17.2 99 1023.2 13.0 S 15.9 0.0 0.6
17:00 17.3 17.2 99 1023.0 13.0 S 15.9 0.0 0.6
17:01 17.3 17.2 99 1023.0 13.0 S 15.9 0.0 0.6
17:02 17.2 17.1 99 1023.0 13.6 SE 15.9 0.0 0.6
17:03 17.2 17.1 99 1023.1 15.2 S 15.9 0.0 0.6
17:04 17.1 17.0 99 1023.0 13.0 SW 15.9 0.0 0.6
17:05 17.1 17.0 99 1023.0 14.5 WSW 15.9 0.0 0.6
17:06 17.1 17.0 99 1022.9 9.8 SW 15.9 0.0 0.6
17:07 17.0 16.9 99 1023.1 13.0 S 15.9 0.0 0.6
17:08 17.0 16.9 99 1023.0 10.7 SW 15.2 0.0 0.6
17:09 17.0 16.9 99 1023.0 9.8 S 15.2 0.0 0.6
17:10 17.0 16.9 99 1023.1 12.1 SW 15.2 0.0 0.6
17:11 17.0 16.9 99 1023.1 13.6 SW 15.2 0.0 0.6
17:13 16.9 16.8 99 1023.1 8.3 SW 14.5 0.0 0.6
17:14 16.9 16.8 99 1023.0 13.0 S 14.5 0.0 0.6
17:15 16.9 16.8 99 1023.1 14.5 S 14.5 0.0 0.6
17:16 16.9 16.8 99 1023.0 9.8 SSW 14.5 0.0 0.6
17:17 16.9 16.8 99 1022.9 12.1 NNE 14.5 0.0 0.6
17:18 16.8 16.7 99 1023.0 11.4 SW 14.5 0.0 0.6
17:19 16.8 16.7 99 1022.9 13.0 S 14.5 0.0 0.6
17:20 16.8 16.7 99 1023.0 11.4 NW 14.5 0.0 0.6
17:21 16.8 16.7 99 1023.2 16.8 SW 16.8 0.0 0.6
17:22 16.8 16.7 99 1022.9 15.9 S 16.8 0.0 0.6
17:23 16.8 16.7 99 1023.0 12.1 SW 16.8 0.0 0.6
17:24 16.8 16.7 99 1022.9 13.6 SW 16.8 0.0 0.6
17:25 16.7 16.6 99 1022.9 12.1 S 16.8 0.0 0.6
17:26 16.7 16.6 99 1022.9 13.0 SW 16.8 0.0 0.6
17:27 16.7 16.6 99 1022.9 10.7 S 16.8 0.0 0.6
17:28 16.7 16.6 99 1023.1 13.6 SW 16.8 0.0 0.6
17:29 16.7 16.6 99 1022.8 14.5 S 16.8 0.0 0.6
17:30 16.7 16.6 99 1022.9 15.2 S 16.8 0.0 0.6
17:32 16.6 16.5 99 1022.8 13.6 S 15.2 0.0 0.6
17:33 16.6 16.5 99 1023.0 7.6 S 15.2 0.0 0.6
17:34 16.6 16.5 99 1023.0 10.7 S 15.2 0.0 0.6
17:35 16.6 16.5 99 1023.1 12.1 S 15.2 0.0 0.6
17:36 16.6 16.5 99 1023.1 13.6 SW 15.2 0.0 0.6
17:37 16.6 16.5 99 1022.9 11.4 NW 15.2 0.0 0.6
17:38 16.6 16.5 99 1022.8 8.3 SW 15.2 0.0 0.6
17:39 16.6 16.5 99 1022.8 9.8 SW 15.2 0.0 0.6
17:40 16.6 16.5 99 1022.7 9.8 SW 15.2 0.0 0.6
17:41 16.6 16.5 99 1023.0 11.4 SW 13.6 0.0 0.6
17:42 16.6 16.5 99 1022.9 12.1 SE 13.6 0.0 0.6
17:43 16.6 16.5 99 1022.8 13.6 SE 13.6 0.0 0.6
17:44 16.5 16.4 99 1022.9 14.5 S 14.5 0.0 0.6
17:45 16.5 16.4 99 1023.0 9.2 S 14.5 0.0 0.6
17:46 16.5 16.4 99 1022.9 12.1 S 14.5 0.0 0.6
17:47 16.5 16.4 99 1022.9 12.1 SW 14.5 0.0 0.6
17:48 16.5 16.4 99 1022.9 11.4 S 14.5 0.0 0.6
17:49 16.4 16.3 99 1022.8 11.4 NE 14.5 0.0 0.6
17:51 16.4 16.3 99 1022.9 11.4 SW 14.5 0.0 0.6
17:52 16.4 16.3 99 1022.8 9.2 SW 14.5 0.0 0.6
17:53 16.4 16.3 99 1022.9 17.4 SW 17.4 0.0 0.6
17:54 16.4 16.3 99 1023.0 12.1 SW 17.4 0.0 0.6
17:55 16.4 16.3 99 1023.0 10.7 SW 17.4 0.0 0.6
17:56 16.4 16.3 99 1022.9 10.7 S 17.4 0.0 0.6
17:57 16.3 16.2 99 1023.0 14.5 S 17.4 0.0 0.6
17:58 16.3 16.2 99 1023.0 14.5 S 17.4 0.0 0.6
17:59 16.3 16.2 99 1022.9 11.4 SW 17.4 0.0 0.6
18:00 16.3 16.2 99 1022.9 11.4 S 17.4 0.0 0.6
18:01 16.3 16.2 99 1022.9 11.4 S 17.4 0.0 0.6
18:02 16.3 16.2 99 1023.0 13.0 S 17.4 0.0 0.6
18:03 16.3 16.2 99 1022.9 11.4 S 17.4 0.0 0.6
18:04 16.2 16.1 99 1023.0 14.5 SW 14.5 0.0 0.6
18:05 16.2 16.1 99 1023.0 15.2 SSW 15.2 0.0 0.6
18:06 16.2 16.1 99 1023.0 11.4 SSW 15.2 0.0 0.6
18:07 16.2 16.1 99 1022.9 15.9 SW 15.9 0.0 0.6
18:09 16.1 16.0 99 1023.0 11.4 S 15.9 0.0 0.6
18:10 16.1 16.0 99 1023.0 9.8 S 15.9 0.0 0.6
18:11 16.1 16.0 99 1022.9 13.6 S 15.9 0.0 0.6
18:12 16.1 16.0 99 1022.9 13.6 S 15.9 0.0 0.6
18:13 16.1 16.0 99 1023.0 10.7 S 15.9 0.0 0.6
18:14 16.1 16.0 99 1022.9 14.5 S 15.9 0.0 0.6
18:15 16.0 15.9 99 1023.1 13.0 SW 15.9 0.0 0.6
18:16 16.1 16.0 99 1023.0 13.0 SW 15.9 0.0 0.6
18:17 16.0 15.9 99 1023.3 13.0 S 15.9 0.0 0.6
18:18 16.0 15.9 99 1023.1 15.2 SW 15.2 0.0 0.6
18:19 16.0 15.9 99 1022.9 12.1 SW 15.2 0.0 0.6
18:20 16.0 15.9 99 1023.0 14.5 S 15.2 0.0 0.6
18:21 16.0 15.9 99 1022.9 16.8 SW 16.8 0.0 0.6
18:22 16.0 15.9 99 1023.1 16.8 SW 16.8 0.0 0.6
18:23 15.9 15.8 99 1023.1 15.2 S 16.8 0.0 0.6
18:24 15.9 15.8 99 1022.9 11.4 S 16.8 0.0 0.6
18:25 15.9 15.8 99 1023.0 15.2 NW 16.8 0.0 0.6
18:26 15.9 15.8 99 1023.1 15.9 S 16.8 0.0 0.6
18:28 15.8 15.7 99 1023.2 11.4 SW 16.8 0.0 0.6
18:29 15.8 15.7 99 1023.1 12.1 SW 16.8 0.0 0.6
18:30 15.8 15.7 99 1023.2 9.2 S 16.8 0.0 0.6
18:31 15.8 15.7 99 1023.2 16.8 SE 16.8 0.0 0.6
18:32 15.8 15.7 99 1023.2 15.2 WSW 16.8 0.0 0.6
18:33 15.8 15.7 99 1023.1 12.1 SW 16.8 0.0 0.6
18:34 15.8 15.7 99 1023.3 12.1 SW 16.8 0.0 0.6
18:35 15.8 15.7 99 1023.2 11.4 S 16.8 0.0 0.6
18:36 15.8 15.7 99 1023.2 12.1 S 16.8 0.0 0.6
18:37 15.7 15.6 99 1023.3 10.7 S 16.8 0.0 0.6
18:38 15.8 15.7 99 1023.3 13.6 S 16.8 0.0 0.6
18:39 15.7 15.6 99 1023.1 15.9 S 18.3 0.0 0.6
18:40 15.7 15.6 99 1023.4 15.9 WSW 18.3 0.0 0.6
18:41 15.7 15.6 99 1023.2 13.0 WSW 18.3 0.0 0.6
18:42 15.7 15.6 99 1023.2 15.9 SW 18.3 0.0 0.6
18:43 15.7 15.6 99 1023.1 16.8 SW 18.3 0.0 0.6
18:44 15.7 15.6 99 1023.0 13.0 SE 18.3 0.0 0.6
18:45 15.6 15.5 99 1023.2 15.2 SE 18.3 0.0 0.6
18:47 15.6 15.5 99 1023.2 12.1 SSW 18.3 0.0 0.6
18:48 15.6 15.5 99 1023.1 15.9 SSW 18.3 0.0 0.6
18:49 15.6 15.5 99 1023.2 11.4 NW 16.8 0.0 0.6
18:50 15.6 15.5 99 1023.2 11.4 SW 16.8 0.0 0.6
18:51 15.6 15.5 99 1023.2 13.6 SW 16.8 0.0 0.6
18:52 15.6 15.5 99 1023.2 9.2 SW 16.8 0.0 0.6
18:53 15.6 15.5 99 1023.3 13.0 S 15.9 0.0 0.6
18:54 15.6 15.5 99 1023.3 13.0 S 15.9 0.0 0.6
18:55 15.6 15.5 99 1023.1 9.8 SW 15.9 0.0 0.6
18:56 15.6 15.5 99 1023.0 14.5 SSW 15.9 0.0 0.6
18:57 15.6 15.5 99 1023.1 14.5 S 15.9 0.0 0.6
18:58 15.6 15.5 99 1023.2 15.9 SW 15.9 0.0 0.6
18:59 15.6 15.5 99 1023.2 13.6 S 15.9 0.0 0.6
19:00 15.6 15.5 99 1023.2 14.5 S 15.9 0.0 0.6
19:01 15.6 15.5 99 1023.3 14.5 S 15.9 0.0 0.6
19:02 15.6 15.5 99 1023.2 14.5 S 15.9 0.0 0.6
19:03 15.6 15.5 99 1023.3 15.2 SW 15.9 0.0 0.6
19:04 15.6 15.5 99 1023.2 14.5 S 15.9 0.0 0.6
19:05 15.6 15.5 99 1023.2 16.8 WSW 16.8 0.0 0.6
19:06 15.6 15.5 99 1023.1 13.6 S 16.8 0.0 0.6
19:07 15.6 15.5 99 1023.1 14.5 S 16.8 0.0 0.6
19:08 15.6 15.5 99 1023.1 13.0 SE 16.8 0.0 0.6
19:10 15.6 15.5 99 1023.3 15.2 SW 16.8 0.0 0.6
19:11 15.6 15.5 99 1023.3 14.5 S 16.8 0.0 0.6
19:12 15.6 15.5 99 1023.3 15.9 S 16.8 0.0 0.6
19:13 15.5 15.4 99 1023.4 9.8 S 16.8 0.0 0.6
19:14 15.5 15.4 99 1023.3 14.5 S 16.8 0.0 0.6
19:15 15.5 15.4 99 1023.3 14.5 S 16.8 0.0 0.6
19:16 15.5 15.4 99 1023.4 13.6 SW 15.9 0.0 0.6
19:17 15.5 15.4 99 1023.4 13.6 SW 15.9 0.0 0.6
19:18 15.5 15.4 99 1023.3 14.5 S 15.9 0.0 0.6
19:19 15.5 15.4 99 1023.3 17.4 SW 17.4 0.0 0.6
19:20 15.5 15.4 99 1023.3 14.5 WSW 17.4 0.0 0.6
19:21 15.5 15.4 99 1023.3 13.6 WSW 17.4 0.0 0.6
19:22 15.5 15.4 99 1023.4 13.0 SW 17.4 0.0 0.6
19:23 15.5 15.4 99 1023.4 14.5 NNE 17.4 0.0 0.6
19:24 15.5 15.4 99 1023.4 15.2 S 17.4 0.0 0.6
19:25 15.5 15.4 99 1023.4 15.9 S 17.4 0.0 0.6
19:26 15.5 15.4 99 1023.2 16.8 S 17.4 0.0 0.6
19:27 15.5 15.4 99 1023.3 14.5 S 17.4 0.0 0.6
19:29 15.5 15.4 99 1023.2 9.2 S 16.8 0.0 0.6
19:30 15.5 15.4 99 1023.5 13.0 S 16.8 0.0 0.6
19:31 15.5 15.4 99 1023.2 16.8 S 16.8 0.0 0.6
19:32 15.5 15.4 99 1023.5 15.2 W 16.8 0.0 0.6
19:33 15.5 15.4 99 1023.3 13.0 SW 16.8 0.0 0.6
19:34 15.4 15.3 99 1023.3 13.0 S 16.8 0.0 0.6
19:35 15.4 15.3 99 1023.3 10.7 SW 16.8 0.0 0.6
19:36 15.5 15.4 99 1023.2 9.8 WNW 16.8 0.0 0.6
19:37 15.5 15.4 99 1023.2 9.8 WNW 16.8 0.0 0.6
19:38 15.5 15.4 99 1023.3 9.2 SW 16.8 0.0 0.6
19:39 15.5 15.4 99 1023.3 12.1 SW 16.8 0.0 0.6
19:40 15.4 15.3 99 1023.3 11.4 SE 16.8 0.0 0.6
19:41 15.4 15.3 99 1023.4 11.4 SW 16.8 0.0 0.6
19:42 15.5 15.4 99 1023.3 9.8 W 15.2 0.0 0.6
19:43 15.4 15.3 99 1023.3 9.2 SW 15.2 0.0 0.6
19:44 15.5 15.4 99 1023.3 12.1 SW 13.0 0.0 0.6
19:45 15.5 15.4 99 1023.3 14.5 SW 14.5 0.0 0.6
19:46 15.4 15.3 99 1023.3 13.0 SW 14.5 0.0 0.6
19:47 15.4 15.3 99 1023.3 14.5 SW 14.5 0.0 0.6
19:49 15.4 15.3 99 1023.5 11.4 S 14.5 0.0 0.6
19:50 15.4 15.3 99 1023.4 9.8 S 14.5 0.0 0.6
19:51 15.4 15.3 99 1023.4 13.0 SW 14.5 0.0 0.6
19:52 15.4 15.3 99 1023.4 11.4 SSW 14.5 0.0 0.6
19:53 15.4 15.3 99 1023.4 13.6 SW 14.5 0.0 0.6
19:54 15.4 15.3 99 1023.4 11.4 SW 14.5 0.0 0.6
19:55 15.4 15.3 99 1023.6 10.7 SW 14.5 0.0 0.6
19:56 15.4 15.3 99 1023.5 9.8 SE 14.5 0.0 0.6
19:57 15.4 15.3 99 1023.3 11.4 SW 14.5 0.0 0.6
19:58 15.4 15.3 99 1023.4 13.0 W 13.6 0.0 0.6
19:59 15.4 15.3 99 1023.3 11.4 S 13.6 0.0 0.6
20:00 15.4 15.3 99 1023.3 11.4 SW 13.6 0.0 0.6
20:01 15.4 15.3 99 1023.4 11.4 SW 13.6 0.0 0.6
20:02 15.4 15.3 99 1023.3 13.6 SW 13.6 0.0 0.6
20:03 15.4 15.3 99 1023.3 13.0 SW 13.6 0.0 0.6
20:04 15.4 15.3 99 1023.4 8.3 S 13.6 0.0 0.6
20:05 15.4 15.3 99 1023.5 10.7 S 13.6 0.0 0.6
20:07 15.4 15.3 99 1023.4 9.2 SW 13.6 0.0 0.6
20:08 15.4 15.3 99 1023.4 12.1 S 13.6 0.0 0.6
20:09 15.4 15.3 99 1023.5 11.4 SW 13.6 0.0 0.6
20:10 15.4 15.3 99 1023.5 9.2 SW 13.6 0.0 0.6
20:11 15.4 15.3 99 1023.6 9.2 W 13.6 0.0 0.6
20:12 15.4 15.3 99 1023.5 15.2 WSW 15.2 0.0 0.6
20:13 15.4 15.3 99 1023.6 9.8 SW 15.2 0.0 0.6
20:14 15.4 15.3 99 1023.6 9.8 SW 15.2 0.0 0.6
20:15 15.4 15.3 99 1023.5 9.8 S 15.2 0.0 0.6
20:16 15.4 15.3 99 1023.7 10.7 SW 15.2 0.0 0.6
20:17 15.4 15.3 99 1023.5 15.9 SW 15.9 0.0 0.6
20:18 15.4 15.3 99 1023.6 13.0 S 15.9 0.0 0.6
20:19 15.4 15.3 99 1023.5 9.8 SW 15.9 0.0 0.6
20:20 15.4 15.3 99 1023.6 11.4 SW 15.9 0.0 0.6
20:21 15.4 15.3 99 1023.6 8.3 SW 15.9 0.0 0.6
20:22 15.4 15.3 99 1023.5 8.3 SW 15.9 0.0 0.6
20:23 15.3 15.2 99 1023.5 12.1 SW 15.9 0.0 0.6
20:24 15.4 15.3 99 1023.6 11.4 S 15.9 0.0 0.6
20:26 15.4 15.3 99 1023.4 10.7 S 15.9 0.0 0.6
20:27 15.4 15.3 99 1023.4 7.6 S 13.0 0.0 0.6
20:28 15.3 15.2 99 1023.5 11.4 S 13.0 0.0 0.6
20:29 15.4 15.3 99 1023.5 11.4 S 13.0 0.0 0.6
20:30 15.3 15.2 99 1023.5 12.1 SW 13.0 0.0 0.6
20:31 15.3 15.2 99 1023.6 13.0 S 13.0 0.0 0.6
20:32 15.3 15.2 99 1023.6 12.1 SW 13.0 0.0 0.6
20:33 15.3 15.2 99 1023.6 12.1 SW 13.0 0.0 0.6
20:34 15.3 15.2 99 1023.5 11.4 S 13.0 0.0 0.6
20:45 15.3 15.2 99 1023.7 6.9 SW 13.0 0.0 0.6
20:46 15.3 15.2 99 1023.8 9.2 S 13.0 0.0 0.6
20:47 15.3 15.2 99 1023.9 13.0 SE 13.0 0.0 0.6
20:48 15.3 15.2 99 1023.8 11.4 SW 13.0 0.0 0.6
20:49 15.3 15.2 99 1023.8 8.3 S 13.0 0.0 0.6
20:50 15.3 15.2 99 1023.8 9.2 SW 13.0 0.0 0.6
20:51 15.3 15.2 99 1023.8 9.2 S 13.0 0.0 0.6
20:52 15.3 15.2 99 1024.0 10.7 SW 13.0 0.0 0.6
20:53 15.3 15.2 99 1023.9 8.3 S 13.0 0.0 0.6
20:55 15.3 15.2 99 1023.7 8.3 SW 13.0 0.0 0.6
20:56 15.3 15.2 99 1023.8 10.7 SW 13.0 0.0 0.6
20:57 15.3 15.2 99 1023.7 8.3 S 11.4 0.0 0.6
20:58 15.3 15.2 99 1023.9 9.8 S 10.7 0.0 0.6
20:59 15.3 15.2 99 1023.8 13.0 S 13.0 0.0 0.6
21:00 15.3 15.2 99 1023.8 7.6 S 13.0 0.0 0.6
21:01 15.3 15.2 99 1023.8 6.9 SW 13.0 0.0 0.6
21:02 15.3 15.2 99 1023.8 6.9 SW 13.0 0.0 0.6
21:03 15.3 15.2 99 1023.8 10.7 S 13.0 0.0 0.6
21:04 15.3 15.2 99 1023.8 6.9 SW 13.0 0.0 0.6
21:05 15.3 15.2 99 1023.7 6.9 SW 13.0 0.0 0.6
21:06 15.3 15.2 99 1024.0 7.6 S 13.0 0.0 0.6
21:07 15.3 15.2 99 1023.8 9.2 SW 13.0 0.0 0.6
21:08 15.3 15.2 99 1023.9 10.7 S 13.0 0.0 0.6
21:09 15.3 15.2 99 1023.7 8.3 S 13.0 0.0 0.6
21:10 15.3 15.2 99 1023.8 6.0 S 10.7 0.0 0.6
21:11 15.3 15.2 99 1023.9 8.3 SW 10.7 0.0 0.6
21:12 15.3 15.2 99 1024.0 11.4 SW 11.4 0.0 0.6
21:13 15.3 15.2 99 1023.9 8.3 S 11.4 0.0 0.6
21:14 15.2 15.1 99 1024.0 7.6 S 11.4 0.0 0.6
21:15 15.3 15.2 99 1024.0 10.7 SW 11.4 0.0 0.6
21:17 15.2 15.1 99 1023.9 9.2 S 12.1 0.0 0.6
21:18 15.2 15.1 99 1024.0 8.3 SW 12.1 0.0 0.6
21:19 15.2 15.1 99 1023.9 7.6 SW 12.1 0.0 0.6
21:20 15.2 15.1 99 1023.9 7.6 S 12.1 0.0 0.6
21:21 15.2 15.1 99 1024.0 9.8 SW 12.1 0.0 0.6
21:22 15.3 15.2 99 1023.9 9.2 S 12.1 0.0 0.6
21:23 15.2 15.1 99 1023.9 9.2 S 12.1 0.0 0.6
21:24 15.2 15.1 99 1024.0 9.8 S 12.1 0.0 0.6
21:25 15.2 15.1 99 1023.9 6.9 SW 12.1 0.0 0.6
21:26 15.2 15.1 99 1024.0 10.7 S 12.1 0.0 0.6
21:27 15.2 15.1 99 1024.0 10.7 SE 10.7 0.0 0.6
21:28 15.2 15.1 99 1023.9 10.7 SW 10.7 0.0 0.6
21:29 15.2 15.1 99 1024.0 8.3 SW 10.7 0.0 0.6
21:30 15.2 15.1 99 1023.8 7.6 WNW 10.7 0.0 0.6
21:31 15.2 15.1 99 1024.1 9.2 S 10.7 0.0 0.6
21:32 15.2 15.1 99 1023.8 9.2 S 10.7 0.0 0.6
21:33 15.2 15.1 99 1024.0 7.6 SSE 10.7 0.0 0.6
21:34 15.2 15.1 99 1023.8 9.2 SW 10.7 0.0 0.6
21:36 15.2 15.1 99 1023.9 9.2 SW 10.7 0.0 0.6
21:37 15.2 15.1 99 1024.1 8.3 SW 10.7 0.0 0.6
21:38 15.2 15.1 99 1024.2 8.3 S 9.8 0.0 0.6
21:39 15.2 15.1 99 1024.2 12.1 SW 12.1 0.0 0.6
21:40 15.2 15.1 99 1024.0 8.3 SW 12.1 0.0 0.6
21:41 15.2 15.1 99 1024.1 9.8 NNE 12.1 0.0 0.6
21:42 15.2 15.1 99 1024.2 9.8 SW 12.1 0.0 0.6
21:43 15.2 15.1 99 1024.0 15.9 SW 15.9 0.0 0.6
21:44 15.2 15.1 99 1024.1 9.8 SW 15.9 0.0 0.6
21:45 15.2 15.1 99 1024.1 9.8 W 15.9 0.0 0.6
21:46 15.2 15.1 99 1024.3 10.7 SW 15.9 0.0 0.6
21:47 15.2 15.1 99 1024.1 11.4 SW 15.9 0.0 0.6
21:48 15.2 15.1 99 1024.0 9.8 S 15.9 0.0 0.6
21:49 15.2 15.1 99 1024.2 13.0 SW 15.9 0.0 0.6
21:50 15.2 15.1 99 1024.3 10.7 SW 15.9 0.0 0.6
21:51 15.2 15.1 99 1024.3 10.7 SE 15.9 0.0 0.6
21:52 15.2 15.1 99 1024.3 7.6 S 15.9 0.0 0.6
21:53 15.2 15.1 99 1024.4 7.6 SW 13.0 0.0 0.6
21:54 15.2 15.1 99 1024.3 8.3 SE 13.0 0.0 0.6
21:56 15.2 15.1 99 1024.2 9.2 SE 13.0 0.0 0.6
21:57 15.2 15.1 99 1024.3 11.4 SW 13.0 0.0 0.6
21:58 15.2 15.1 99 1024.2 12.1 S 13.0 0.0 0.6
21:59 15.2 15.1 99 1024.2 10.7 NW 12.1 0.0 0.6
22:00 15.2 15.1 99 1024.3 13.0 S 13.0 0.0 0.6
22:01 15.2 15.1 99 1024.3 12.1 W 13.0 0.0 0.6
22:02 15.2 15.1 99 1024.3 13.0 S 13.0 0.0 0.6
22:03 15.2 15.1 99 1024.1 14.5 SW 14.5 0.0 0.6
22:04 15.2 15.1 99 1024.4 11.4 S 14.5 0.0 0.6
22:05 15.2 15.1 99 1024.4 9.2 SE 14.5 0.0 0.6
22:06 15.2 15.1 99 1024.3 13.6 S 14.5 0.0 0.6
22:07 15.2 15.1 99 1024.3 9.2 SW 14.5 0.0 0.6
22:08 15.2 15.1 99 1024.4 9.2 SW 14.5 0.0 0.6
22:09 15.2 15.1 99 1024.4 6.9 SW 14.5 0.0 0.6
22:10 15.2 15.1 99 1024.4 9.2 S 14.5 0.0 0.6
22:11 15.2 15.1 99 1024.7 8.3 SW 14.5 0.0 0.6
22:12 15.2 15.1 99 1024.4 7.6 SW 14.5 0.0 0.6
22:13 15.2 15.1 99 1024.3 6.9 SW 13.6 0.0 0.6
22:14 15.2 15.1 99 1024.4 12.1 SW 13.6 0.0 0.6
22:16 15.2 15.1 99 1024.3 9.8 SW 12.1 0.0 0.6
22:17 15.2 15.1 99 1024.4 10.7 S 12.1 0.0 0.6
22:18 15.2 15.1 99 1024.4 9.8 S 12.1 0.0 0.6
22:19 15.2 15.1 99 1024.3 13.6 SW 13.6 0.0 0.6
22:20 15.2 15.1 99 1024.3 7.6 NW 13.6 0.0 0.6
22:21 15.2 15.1 99 1024.3 7.6 NW 13.6 0.0 0.6
22:22 15.2 15.1 99 1024.3 13.6 SW 13.6 0.8 0.7
22:23 15.2 15.1 99 1024.3 9.8 S 13.6 0.8 0.7
22:24 15.2 15.1 99 1024.4 8.3 S 13.6 0.8 0.7
22:25 15.2 15.1 99 1024.3 13.0 S 13.6 0.8 0.7
22:26 15.2 15.1 99 1024.3 9.8 SW 13.6 0.8 0.7
22:27 15.2 15.1 99 1024.3 8.3 SW 13.6 0.0 0.7
22:28 15.2 15.1 99 1024.3 11.4 S 13.6 0.0 0.7
22:29 15.2 15.1 99 1024.3 8.3 SW 13.6 0.0 0.7
22:30 15.2 15.1 99 1024.4 10.7 SW 13.6 0.0 0.7
22:31 15.2 15.1 99 1024.3 9.8 SW 13.6 0.0 0.7
22:32 15.3 15.2 99 1024.6 7.6 SW 13.0 0.0 0.7
22:33 15.2 15.1 99 1024.4 6.9 S 13.0 0.0 0.7
22:34 15.3 15.2 99 1024.5 12.1 SW 13.0 0.0 0.7
22:35 15.3 15.2 99 1024.6 11.4 SW 12.1 0.0 0.7
22:37 15.3 15.2 99 1024.4 9.2 SW 12.1 0.0 0.7
22:38 15.2 15.1 99 1024.3 9.8 SW 12.1 0.0 0.7
22:39 15.2 15.1 99 1024.4 8.3 SW 12.1 0.0 0.7
22:40 15.2 15.1 99 1024.5 11.4 NW 12.1 0.0 0.7
22:41 15.2 15.1 99 1024.4 9.2 S 12.1 0.0 0.7
22:42 15.2 15.1 99 1024.4 10.7 S 12.1 0.0 0.7
22:43 15.2 15.1 99 1024.3 9.8 S 12.1 0.0 0.7
22:44 15.2 15.1 99 1024.4 8.3 SW 12.1 0.0 0.7
22:45 15.2 15.1 99 1024.4 7.6 SW 11.4 0.0 0.7
22:46 15.2 15.1 99 1024.3 7.6 SW 11.4 0.0 0.7
22:47 15.2 15.1 99 1024.4 7.6 S 11.4 0.0 0.7
22:48 15.2 15.1 99 1024.3 6.0 SW 11.4 0.0 0.7
22:49 15.2 15.1 99 1024.3 10.7 S 11.4 0.0 0.7
22:50 15.2 15.1 99 1024.4 6.9 SW 11.4 0.0 0.7
22:51 15.2 15.1 99 1024.3 6.0 SW 10.7 0.0 0.7
22:52 15.2 15.1 99 1024.3 8.3 S 10.7 0.0 0.7
22:53 15.2 15.1 99 1024.3 7.6 WSW 10.7 0.0 0.7
22:54 15.2 15.1 99 1024.6 10.7 SE 10.7 0.0 0.7
22:55 15.2 15.1 99 1024.4 9.8 SW 10.7 0.0 0.7
22:56 15.2 15.1 99 1024.4 9.2 SW 10.7 0.0 0.7
22:57 15.2 15.1 99 1024.4 6.9 SE 10.7 0.0 0.7
22:58 15.3 15.2 99 1024.5 13.0 SW 13.0 0.0 0.7
22:59 15.2 15.1 99 1024.4 9.8 S 13.0 0.0 0.7
23:00 15.2 15.1 99 1024.4 8.3 SW 13.0 0.0 0.7
23:01 15.2 15.1 99 1024.6 8.3 SW 13.0 0.0 0.7
23:03 15.2 15.1 99 1024.4 8.3 SW 13.0 0.0 0.7
23:04 15.2 15.1 99 1024.5 8.3 SW 13.0 0.0 0.7
23:05 15.3 15.2 99 1024.3 10.7 S 13.0 0.0 0.7
23:06 15.3 15.2 99 1024.3 10.7 S 13.0 0.0 0.7
23:07 15.3 15.2 99 1024.3 7.6 S 13.0 0.0 0.7
23:08 15.3 15.2 99 1024.3 10.7 S 10.7 0.0 0.7
23:09 15.3 15.2 99 1024.5 7.6 S 10.7 0.0 0.7
23:10 15.3 15.2 99 1024.5 6.9 SW 10.7 0.0 0.7
23:11 15.3 15.2 99 1024.4 6.9 S 10.7 0.0 0.7
23:12 15.3 15.2 99 1024.4 9.2 SW 10.7 0.0 0.7
23:13 15.3 15.2 99 1024.3 10.7 SW 10.7 0.0 0.7
23:14 15.3 15.2 99 1024.2 9.2 S 10.7 0.0 0.7
23:15 15.3 15.2 99 1024.3 9.2 S 10.7 0.0 0.7
23:16 15.3 15.2 99 1024.4 8.3 SW 10.7 0.0 0.7
23:17 15.3 15.2 99 1024.3 14.5 SW 14.5 0.0 0.7
23:18 15.3 15.2 99 1024.5 9.8 SSE 14.5 0.0 0.7
23:19 15.3 15.2 99 1024.4 8.3 S 14.5 0.0 0.7
23:20 15.3 15.2 99 1024.3 6.9 SW 14.5 0.0 0.7
23:21 15.3 15.2 99 1024.3 9.2 S 14.5 0.0 0.7
23:22 15.3 15.2 99 1024.4 9.2 WNW 14.5 0.0 0.7
23:23 15.3 15.2 99 1024.4 10.7 S 14.5 0.0 0.7
23:24 15.3 15.2 99 1024.4 11.4 SW 14.5 0.0 0.7
23:25 15.3 15.2 99 1024.3 12.1 SW 14.5 0.0 0.7
23:26 15.3 15.2 99 1024.4 8.3 S 14.5 0.0 0.7
23:27 15.3 15.2 99 1024.5 10.7 S 14.5 0.0 0.7
23:28 15.3 15.2 99 1024.4 12.1 SW 12.1 0.0 0.7
23:29 15.3 15.2 99 1024.3 9.8 S 12.1 0.0 0.7
23:30 15.3 15.2 99 1024.3 9.8 S 12.1 0.0 0.7
23:31 15.3 15.2 99 1024.5 9.2 S 12.1 0.0 0.7
23:32 15.3 15.2 99 1024.3 10.7 SW 12.1 0.0 0.7
23:33 15.3 15.2 99 1024.3 10.7 S 12.1 0.0 0.7
23:34 15.3 15.2 99 1024.3 9.8 SW 12.1 0.0 0.7
23:35 15.3 15.2 99 1024.3 12.1 SE 12.1 0.0 0.7
23:36 15.3 15.2 99 1024.2 9.2 SW 12.1 0.0 0.7
23:37 15.3 15.2 99 1024.4 7.6 SW 12.1 0.0 0.7
23:38 15.3 15.2 99 1024.3 10.7 S 12.1 0.0 0.7
23:39 15.3 15.2 99 1024.3 9.2 SW 12.1 0.0 0.7
23:41 15.3 15.2 99 1024.3 6.0 SW 12.1 0.0 0.7
23:42 15.3 15.2 99 1024.3 8.3 S 12.1 0.0 0.7
23:43 15.3 15.2 99 1024.3 10.7 SW 12.1 0.0 0.7
23:44 15.3 15.2 99 1024.2 12.1 SW 12.1 0.0 0.7
23:45 15.3 15.2 99 1024.1 9.8 S 12.1 0.0 0.7
23:46 15.3 15.2 99 1024.2 8.3 SW 12.1 0.0 0.7
23:47 15.4 15.3 99 1024.2 10.7 SW 12.1 0.0 0.7
23:48 15.3 15.2 99 1024.0 10.7 SW 12.1 0.0 0.7
23:49 15.3 15.2 99 1024.2 11.4 SW 12.1 0.0 0.7
23:50 15.3 15.2 99 1024.2 9.8 SW 12.1 0.0 0.7
23:51 15.3 15.2 99 1024.1 6.9 W 12.1 0.0 0.7
23:52 15.3 15.2 99 1024.1 9.2 NNE 12.1 0.0 0.7
23:53 15.3 15.2 99 1024.2 7.6 SW 12.1 0.0 0.7
23:54 15.3 15.2 99 1024.1 9.2 S 12.1 0.0 0.7
23:55 15.3 15.2 99 1024.3 9.2 S 11.4 0.0 0.7
23:56 15.3 15.2 99 1024.2 11.4 NW 11.4 0.0 0.7
23:57 15.3 15.2 99 1024.1 9.2 SW 11.4 0.0 0.7
23:58 15.3 15.2 99 1024.3 8.3 SW 11.4 0.0 0.7
23:59 15.3 15.2 99 1024.2 8.3 S 11.4 0.0 0.7

UK - WEATHER STATION TOPSITES - UK World Weather Websites

This is a private weather station, never base important decisions or events on data from this weather station. Although every effort has been made to make the data as accurate as possible it does not meet MetOffice standards. It is proved as a guide of local weather conditions. We accept no liability for any loss which may arise from use of the data.

Copyright © Carnkie Weather 2009 - 2018.